GFSNW_con_lsi_024.txt.gz
Lid_Strength_Index
6 6 6 6 6 7 7 9 13 6 6 11 11 13 11 12 11 10 10 9 9 9 8 8 8 8 6 5 5 7 5 7 9 8 5 5 6 7 7 10 11 9 10 10
4 4 4 4 4 5 6 9 9 5 6 13 12 11 11 11 11 10 10 11 9 8 9 9 8 7 5 5 5 6 5 8 11 9 7 6 7 6 6 7 7 10 12 10
3 3 2 3 3 3 4 7 10 8 6 8 10 11 11 11 9 9 9 9 9 9 9 7 8 7 6 5 6 4 5 7 9 11 9 7 8 7 7 7 9 9 9 8
1 1 0 1 1 1 3 6 9 7 10 8 8 8 9 11 11 8 7 8 10 10 10 9 9 7 6 5 5 5 6 9 7 7 7 7 7 7 7 8 8 9 8 8
0 -0 -1 -1 -0 -0 3 7 7 6 8 7 8 10 10 10 10 9 9 9 8 8 9 9 9 7 6 7 5 6 5 9 8 9 7 7 8 7 7 7 7 7 7 7
-1 -1 -1 -1 -1 -0 3 3 3 6 8 9 10 9 9 9 7 8 7 7 8 8 7 5 5 4 4 5 6 6 7 8 9 11 8 8 10 8 7 7 6 6 8 6
-1 -1 -1 -1 -1 -1 1 2 3 7 8 8 9 9 8 9 8 9 7 7 8 5 4 5 4 5 5 5 5 5 7 8 8 11 9 14 8 5 6 6 6 6 5 5
-1 -1 -1 -1 -1 -1 1 1 4 6 9 6 8 9 8 8 8 8 7 6 5 4 5 8 9 9 8 7 6 6 6 8 10 12 11 9 8 6 7 7 7 5 5 5
-1 -1 -1 -1 -1 -1 0 1 1 4 8 7 5 7 7 8 8 8 7 5 3 4 7 9 12 12 10 10 8 6 6 7 10 11 13 14 10 8 6 6 10 5 4 5
-1 -1 -1 -1 -1 -1 -0 1 -0 3 8 5 4 7 7 6 7 8 6 7 6 5 9 11 12 11 8 10 11 11 10 10 12 11 12 10 8 7 6 11 10 6 4 4
-1 -1 -1 -1 -1 -1 -0 1 -0 3 6 5 3 3 5 6 7 10 6 8 8 8 12 11 11 10 9 9 8 10 11 11 11 10 12 14 7 7 9 8 6 5 5 5
-1 -1 -1 -1 -1 -1 -1 2 -0 -1 4 5 1 2 2 3 4 6 7 7 7 8 10 10 10 11 9 9 12 8 11 8 9 10 10 7 6 7 5 5 6 5 5 4
-1 -1 -1 -1 -1 -1 -1 1 1 2 5 5 4 4 2 1 2 2 8 6 7 7 5 8 9 13 9 12 11 9 9 6 9 9 8 7 6 5 4 4 4 4 4 4
-1 -1 -1 -1 -0 -0 -0 1 -0 1 4 8 5 2 2 1 1 3 4 5 4 6 6 8 9 12 7 11 10 10 9 8 9 9 7 7 6 5 4 4 3 4 3 4
-0 -0 -0 -0 -0 -0 -1 -0 0 1 5 7 6 3 2 1 3 3 4 5 7 7 9 9 10 8 9 8 9 11 9 10 10 10 6 7 7 5 4 5 4 4 4 4
-0 -0 -1 -0 -0 0 1 4 3 2 2 6 9 3 3 2 2 3 4 4 6 6 7 8 8 7 9 11 13 9 7 6 6 7 5 5 5 6 6 6 6 5 5 4
0 -0 0 0 0 1 3 5 3 2 2 8 9 8 3 3 3 4 4 4 6 6 7 8 8 8 7 10 13 9 7 6 5 5 5 7 7 8 7 7 6 6 6 6
0 0 0 0 0 1 3 1 1 2 6 7 10 10 7 3 6 6 4 6 6 7 8 7 9 8 8 12 9 8 7 6 7 6 6 7 6 7 7 6 6 6 6 6
-0 0 1 1 2 4 3 1 1 2 6 12 11 11 11 3 5 6 6 6 9 6 8 9 8 10 12 10 9 8 7 8 8 7 7 6 6 7 6 6 6 6 7 6
1 1 2 4 2 0 1 3 6 6 7 8 10 5 8 5 6 8 8 7 8 12 9 7 10 11 8 7 7 6 6 6 6 8 9 8 7 6 6 6 5 5 4 5
1 3 4 1 -0 2 3 7 8 7 10 9 7 6 8 4 8 8 6 8 8 12 11 11 12 13 9 7 6 5 5 4 5 5 6 5 5 5 5 5 4 4 3 3
2 3 2 2 4 5 8 8 7 8 10 7 8 7 6 5 4 7 6 8 8 12 7 11 14 10 7 6 6 5 4 4 4 3 4 3 3 3 3 3 3 3 2 2
0 3 5 6 6 12 12 13 11 11 7 6 6 8 5 5 4 6 7 9 11 7 11 13 11 8 6 6 5 4 3 3 3 3 3 3 3 3 3 3 2 2 2 2
5 7 11 10 11 10 10 10 9 7 6 7 6 7 7 5 6 7 10 8 7 12 14 14 10 7 6 5 4 4 4 3 3 3 3 3 3 3 2 2 2 2 3 2
7 8 11 10 7 7 6 5 6 5 5 6 7 6 6 7 8 8 9 10 13 13 13 10 7 6 5 4 4 4 4 3 3 3 3 3 2 2 2 2 2 2 2 2
4 6 8 6 7 7 6 5 6 4 4 4 5 7 8 9 9 10 12 12 14 12 9 7 5 5 4 4 4 4 3 3 3 3 2 2 2 2 2 2 2 2 2 2
6 6 4 5 5 6 5 5 5 3 5 7 6 10 11 6 10 12 10 12 10 7 6 5 4 4 4 3 3 3 3 3 3 2 2 2 2 1 2 2 2 1 1 1

GFSNW_con_lsi_027.txt.gz
Lid_Strength_Index
5 5 5 5 6 6 7 7 10 4 3 8 9 11 10 10 9 8 9 9 9 9 7 7 7 7 6 4 5 7 5 7 9 8 5 5 6 7 7 10 11 9 9 9
3 3 3 4 5 4 5 8 7 3 4 10 10 8 9 9 10 10 9 10 9 8 8 8 7 6 5 5 5 6 5 8 10 9 7 6 7 7 7 7 7 10 11 10
2 2 1 2 2 2 3 5 8 4 4 4 8 9 10 10 8 9 9 10 9 9 9 7 8 7 5 5 5 5 5 7 8 10 9 7 8 7 7 7 9 9 9 8
1 1 -0 -0 0 0 2 4 6 5 8 6 7 7 8 10 11 9 7 9 9 9 10 10 9 7 6 5 5 5 5 8 7 7 7 7 7 7 7 8 7 9 8 8
-1 -1 -1 -1 -1 -0 3 6 6 4 6 5 6 8 8 10 10 8 10 9 7 6 9 8 9 7 6 6 5 6 5 8 7 8 7 7 8 7 7 7 7 7 7 7
-1 -1 -1 -1 -1 -0 3 2 2 5 6 6 7 8 7 8 7 7 7 8 9 9 7 5 5 5 4 5 6 6 6 7 8 10 8 8 9 8 7 7 6 6 8 6
-1 -1 -1 -1 -1 -0 1 2 3 7 8 6 7 7 8 8 7 8 8 8 10 7 5 5 5 4 5 5 5 5 6 7 8 10 9 14 8 5 5 6 6 5 5 5
-2 -1 -1 -1 -1 -1 1 1 3 6 8 6 6 6 7 7 6 7 8 8 7 6 6 8 9 8 8 7 6 5 5 7 9 11 11 9 7 6 7 7 7 5 5 5
-1 -1 -1 -1 -1 -1 -0 0 0 4 8 7 5 7 6 8 8 7 6 5 4 5 7 10 12 12 9 10 8 5 6 6 9 10 12 13 8 7 5 6 9 5 4 5
-1 -1 -1 -1 -1 -1 -0 0 -1 3 7 5 4 6 8 6 7 8 7 6 6 5 9 11 12 11 8 11 11 9 9 9 11 11 11 9 8 6 5 10 9 6 5 5
-1 -1 -1 -1 -1 -1 -1 1 -1 3 6 5 3 3 5 5 6 8 7 7 7 8 11 11 10 10 9 10 8 9 10 10 10 10 12 15 6 6 8 7 6 5 5 4
-1 -1 -1 -1 -1 -1 -1 2 -1 -0 4 5 1 1 2 2 2 5 6 6 8 7 11 11 11 12 11 10 13 6 10 8 9 8 9 6 5 6 5 5 6 5 5 4
-1 -1 -1 -1 -1 -1 -1 1 0 1 4 4 3 4 1 0 1 2 7 6 5 6 5 8 10 13 10 15 13 11 6 5 8 9 8 7 6 5 4 4 5 4 4 4
-1 -1 -1 -1 -1 -1 -1 1 0 1 4 8 5 1 2 0 1 2 3 5 3 4 6 8 9 11 8 11 11 11 11 9 9 9 7 6 5 5 4 4 4 4 4 4
-0 -0 -0 -0 0 0 -0 -0 -0 -0 4 7 5 2 1 1 1 3 3 4 5 5 8 9 10 8 9 8 10 12 9 11 11 10 7 7 6 5 4 4 4 4 4 4
-0 -0 -0 -0 0 0 1 4 0 -0 1 6 9 3 3 3 1 2 3 4 6 6 8 9 7 6 7 11 13 9 7 6 6 8 5 5 4 4 4 4 4 4 3 3
0 0 0 0 0 1 3 5 3 1 1 7 9 9 4 3 2 3 4 3 5 6 7 8 8 7 8 10 13 9 7 6 6 5 5 6 5 6 5 5 5 5 4 4
0 0 1 0 1 1 3 1 1 1 5 7 10 10 8 3 5 6 3 5 5 5 7 7 9 7 8 12 9 8 7 7 7 5 4 5 5 5 7 7 5 6 6 5
-0 0 0 0 2 4 2 2 2 2 6 10 12 12 12 5 6 4 5 5 9 5 9 9 8 10 12 10 9 8 7 8 9 7 6 7 7 7 6 7 6 6 6 6
0 0 3 5 1 2 1 4 6 7 7 9 11 7 10 6 7 6 7 6 10 12 10 7 10 11 9 7 6 7 8 7 8 9 9 8 7 6 6 6 6 5 5 5
1 3 4 1 0 2 5 8 8 9 10 9 8 7 8 4 9 9 7 9 9 13 11 11 13 12 10 7 6 6 6 6 6 7 7 7 7 6 5 5 5 4 4 3
2 3 2 2 4 6 9 10 8 9 11 7 8 7 6 6 5 8 7 11 10 14 8 11 15 11 8 7 6 5 5 5 4 4 5 5 4 4 4 4 4 4 3 2
1 3 5 6 6 12 12 13 12 11 8 7 7 9 6 6 6 8 8 11 12 8 12 13 12 8 7 6 5 5 4 4 4 4 4 4 4 3 4 4 3 3 2 2
4 7 12 10 10 9 10 10 9 7 6 6 6 7 6 5 7 8 11 10 8 13 15 14 10 8 6 6 5 4 4 4 4 4 3 3 3 3 3 3 3 3 3 2
6 6 12 9 6 7 7 6 5 5 4 5 6 6 6 7 9 8 8 10 14 13 14 10 8 6 6 4 4 4 4 4 4 3 3 3 2 2 3 2 2 2 2 2
4 5 6 5 6 6 6 5 5 4 4 4 5 7 9 10 10 11 12 13 14 12 9 7 5 5 4 4 3 3 3 3 3 2 2 2 2 2 2 2 1 1 2 2
5 6 4 5 5 6 5 4 5 3 4 7 6 10 10 7 11 12 10 12 10 8 7 5 4 4 4 3 3 3 3 2 2 2 2 2 2 1 2 2 2 1 1 1

GFSNW_con_lsi_030.txt.gz
Lid_Strength_Index
5 5 5 5 5 6 7 8 11 3 3 9 8 11 9 9 9 8 9 9 10 11 10 8 8 8 6 5 5 7 6 7 9 8 6 5 6 7 8 10 11 9 10 10
4 4 4 4 4 4 6 8 8 3 3 11 10 8 9 8 9 9 10 10 9 9 10 10 9 7 5 5 5 6 6 8 10 10 8 6 7 7 7 7 8 10 11 10
3 2 2 2 2 1 3 6 8 5 3 4 7 8 8 9 7 9 8 9 8 9 10 8 9 9 6 5 5 5 5 7 9 11 9 7 8 8 7 8 10 10 9 8
1 -1 -1 -1 -1 -0 1 4 6 5 9 7 7 8 8 9 9 7 7 9 9 10 11 11 10 9 8 6 6 5 6 9 8 8 7 7 8 8 8 8 8 10 8 8
-1 -1 -2 -1 -1 -1 2 6 6 5 6 5 7 8 8 9 8 8 10 9 9 9 11 9 12 10 8 8 6 6 5 9 8 9 7 8 8 7 7 7 7 8 7 8
-2 -1 -1 -1 -1 -0 3 2 3 5 7 7 7 7 7 8 8 7 6 8 9 10 10 9 9 8 8 7 6 7 7 8 10 11 8 8 10 8 7 7 7 7 9 7
-2 -2 -1 -1 -1 -1 1 2 3 7 10 8 8 6 6 7 7 9 6 7 9 8 6 7 7 6 7 7 6 6 8 8 9 11 10 14 8 6 6 7 6 6 6 5
-2 -2 -1 -1 -1 -1 1 1 3 6 10 7 7 7 6 7 6 8 6 6 6 7 7 10 12 9 8 8 6 6 6 8 10 12 11 9 8 7 7 7 8 5 6 5
-1 -1 -1 -1 -1 -1 -0 1 0 4 8 8 5 7 6 8 8 7 6 4 3 6 9 11 16 15 10 11 8 6 6 7 9 10 12 14 8 6 5 5 10 5 5 5
-1 -1 -1 -1 -1 -1 -0 1 -1 3 8 5 5 7 7 5 6 9 7 7 6 5 10 13 15 15 9 11 11 10 9 9 10 11 11 9 6 5 5 11 10 6 5 5
-1 -1 -1 -1 -1 -1 -0 1 -1 3 6 5 3 3 5 5 5 9 7 8 7 7 11 12 12 13 10 10 9 10 10 11 10 10 12 13 5 6 9 7 6 5 5 5
-1 -1 -1 -1 -1 -1 -1 2 -1 -0 4 5 2 2 1 2 3 5 6 7 8 7 10 10 11 12 12 11 13 7 11 8 10 9 10 8 6 7 5 5 5 5 5 4
-1 -1 -1 -1 -1 -1 -1 1 0 1 5 4 4 4 1 0 1 2 7 6 5 6 5 9 10 12 10 14 12 11 9 8 10 8 7 7 6 5 4 4 5 4 4 4
-1 -1 -1 -1 -0 -0 -0 1 -0 2 4 8 5 1 2 0 1 1 3 5 4 3 5 8 10 11 8 12 11 12 10 9 10 10 7 6 6 5 4 4 4 4 4 4
-0 -0 -0 -0 -0 -0 0 0 -0 -0 4 8 6 3 2 1 1 2 3 4 5 6 7 9 11 8 9 9 9 11 8 10 11 12 9 9 7 5 4 5 5 4 4 5
0 0 0 0 0 0 1 4 1 -0 1 6 10 3 3 3 3 2 4 4 5 6 7 8 8 6 8 12 12 9 7 6 6 9 6 7 5 4 4 4 4 4 4 4
-0 -0 0 1 1 1 3 5 3 1 1 6 9 8 4 3 3 3 4 3 5 6 7 8 8 8 8 10 12 9 8 7 6 6 6 7 7 6 4 5 4 4 3 3
-0 0 0 1 1 2 4 2 2 2 5 7 10 10 7 4 7 6 3 6 5 6 7 7 9 8 8 12 8 8 7 6 7 6 5 6 5 5 5 4 4 5 5 5
0 0 1 2 3 5 3 2 3 3 6 10 11 11 12 4 6 5 6 5 9 6 9 9 9 10 12 9 8 8 8 8 7 6 5 5 5 5 5 5 6 6 5 5
1 1 3 5 2 1 2 4 7 9 9 10 13 10 10 6 7 8 8 7 10 12 10 7 10 11 8 7 7 7 7 7 6 7 7 6 6 6 5 6 6 6 7 4
1 4 4 2 1 3 5 8 9 10 12 10 10 8 9 5 10 9 7 9 10 13 11 11 13 13 10 7 7 6 6 6 7 7 7 5 5 5 5 5 5 4 6 4
3 4 2 2 4 7 9 10 8 9 11 8 9 8 7 7 5 9 8 11 10 14 8 11 14 11 7 6 6 6 6 6 6 5 5 5 5 5 4 4 4 4 3 3
1 3 5 6 6 12 12 14 12 11 8 7 7 9 7 7 7 9 10 12 13 8 12 14 12 9 7 6 6 5 5 4 4 4 4 4 4 3 3 4 3 3 3 3
5 6 12 9 10 10 10 10 9 7 6 6 6 8 9 7 9 9 12 10 9 13 15 15 11 8 6 5 5 4 5 4 4 4 4 3 4 4 3 3 3 3 4 3
5 6 12 9 7 6 6 6 6 5 5 6 7 6 7 8 9 9 10 12 14 13 14 11 8 6 6 5 4 4 4 4 4 4 4 3 3 4 4 3 3 3 3 3
4 5 7 5 7 7 6 5 5 4 6 5 5 8 9 10 10 11 13 13 15 12 9 7 6 6 5 5 4 4 4 3 3 3 3 3 3 3 3 2 2 2 2 3
5 6 4 5 6 6 5 5 4 3 5 8 7 11 11 7 11 12 10 12 10 8 7 6 5 5 5 4 4 4 4 4 3 3 4 3 3 2 2 3 2 2 1 1

GFSNW_con_lsi_033.txt.gz
Lid_Strength_Index
4 4 5 5 6 7 8 11 15 6 6 11 11 13 11 10 10 9 10 10 11 12 12 13 13 13 11 6 6 9 9 10 12 11 8 7 8 10 11 13 15 13 13 12
4 4 4 5 5 6 8 12 12 5 5 14 11 9 9 9 10 10 10 11 10 10 12 14 12 11 9 8 9 8 8 11 14 12 10 8 9 9 10 10 12 13 14 12
2 2 2 3 3 3 5 9 12 6 4 5 8 10 9 10 8 9 8 11 10 11 12 11 12 12 9 8 8 5 7 9 12 14 12 10 11 9 9 10 12 13 12 12
-0 -1 -0 0 0 0 2 5 8 6 10 8 8 8 9 10 10 7 8 10 10 12 14 13 13 11 11 10 7 8 11 12 10 10 9 9 9 9 9 10 10 12 11 11
-2 -2 -2 -1 -1 -2 2 7 7 6 7 7 8 9 10 10 9 8 10 10 9 10 13 13 15 14 13 13 11 12 11 12 10 11 9 9 9 9 9 9 9 10 10 10
-2 -2 -2 -2 -1 -1 3 3 3 6 8 8 9 8 8 8 8 7 7 8 9 11 11 11 11 11 12 12 13 12 12 12 12 13 10 10 12 10 9 9 8 9 11 9
-2 -2 -1 -2 -1 -1 1 2 3 7 10 8 9 7 7 8 8 9 7 6 8 7 6 8 10 10 10 10 10 9 12 12 11 13 12 16 11 8 7 8 8 8 8 8
-1 -1 -1 -1 -1 -1 1 1 4 6 10 8 8 7 7 7 6 7 7 6 5 5 6 10 12 12 11 11 10 10 9 11 12 14 14 12 10 8 9 10 10 7 8 7
-1 -1 -1 -1 -1 -1 0 1 1 4 8 9 6 8 7 9 9 8 7 4 4 5 8 11 15 16 14 13 12 9 9 9 11 13 15 15 11 7 6 7 12 8 7 7
-1 -2 -1 -1 -1 -1 -0 1 -0 3 8 6 6 8 8 6 7 9 7 7 7 6 11 13 15 15 11 15 14 12 11 11 12 13 14 12 8 6 6 12 12 8 7 7
-1 -2 -1 -1 -1 -1 -0 1 -1 3 6 5 4 4 6 6 6 9 7 8 8 9 12 12 13 14 12 13 11 12 14 15 13 12 15 16 8 7 11 10 8 7 7 7
-1 -1 -1 -1 -1 -1 -1 3 -1 -0 4 5 2 2 2 3 4 6 6 8 8 8 11 11 11 13 12 13 16 9 14 11 14 13 12 9 7 8 7 7 8 7 7 6
-0 -0 -1 -1 -1 -1 -1 1 0 1 5 5 5 5 2 1 2 1 7 6 6 6 5 9 10 13 11 15 14 13 10 9 12 12 10 10 7 6 6 6 6 6 6 6
-0 -0 0 -0 -0 -1 -0 2 0 2 4 8 7 1 3 1 2 2 3 5 5 4 6 9 10 12 9 12 11 12 11 10 11 11 10 9 8 7 6 5 5 6 5 5
-0 0 0 0 0 -0 0 1 1 0 4 9 7 4 3 2 2 3 3 4 6 6 9 9 11 9 10 9 10 12 9 11 12 13 9 9 9 8 8 6 6 6 6 6
0 0 0 0 0 0 3 5 2 -1 2 6 10 5 5 3 3 4 4 4 6 6 8 9 8 6 9 12 13 9 8 7 7 9 6 7 6 7 7 7 5 5 5 5
1 1 1 1 1 2 5 6 3 2 3 7 9 10 5 3 4 4 4 5 6 7 7 9 8 8 8 11 13 9 7 7 6 6 6 8 7 8 7 7 6 6 6 6
2 2 2 2 2 2 5 3 3 3 5 6 11 11 8 4 7 7 4 6 6 6 7 7 9 8 9 12 9 8 7 6 6 6 5 6 6 5 5 6 6 6 7 6
2 2 2 3 4 6 4 2 3 4 7 10 11 13 12 5 7 6 7 6 10 6 9 9 9 10 13 10 9 8 7 8 7 6 6 5 6 6 5 5 6 6 5 5
2 3 5 6 4 1 2 6 9 9 10 11 13 10 12 7 8 9 9 8 10 12 10 8 11 11 8 7 7 7 7 7 7 7 8 7 7 6 6 6 6 6 6 5
2 4 5 4 1 4 6 9 11 12 13 12 12 11 11 5 10 10 8 10 10 14 11 12 13 13 9 6 7 6 7 7 7 7 6 5 5 6 6 5 6 5 6 6
4 5 4 3 5 7 9 10 9 10 11 9 10 8 7 7 6 9 9 11 10 14 9 12 15 12 8 8 6 6 6 6 7 6 6 5 4 4 5 5 5 4 4 4
1 4 6 7 8 13 12 14 12 12 8 8 8 9 7 7 7 9 10 12 13 8 13 15 13 9 8 7 6 5 5 5 5 4 4 4 4 4 4 4 4 4 4 3
5 7 11 10 11 11 10 10 10 7 7 7 7 9 9 8 10 9 12 10 10 14 15 15 11 9 7 6 5 5 5 5 5 4 4 4 4 4 4 4 4 4 4 4
6 6 11 9 7 6 7 6 7 6 6 7 8 7 8 9 10 10 10 12 14 13 14 11 8 7 6 6 5 5 5 5 4 4 4 4 4 4 4 4 4 4 4 4
4 5 8 7 8 8 7 6 7 4 5 5 6 9 10 11 10 12 13 14 15 12 9 8 6 6 6 5 5 5 4 4 4 4 4 4 4 4 4 3 3 4 4 4
5 7 5 6 7 7 7 6 6 4 6 9 8 11 12 9 12 13 11 12 10 8 7 6 6 6 5 5 4 4 4 4 4 4 4 3 3 3 4 4 3 3 3 3

GFSNW_con_lsi_036.txt.gz
Lid_Strength_Index
3 3 3 4 5 6 9 14 17 10 9 16 16 15 14 12 12 9 11 12 13 14 14 15 15 14 13 10 10 13 12 13 14 13 10 9 9 11 12 13 17 15 13 13
2 2 2 3 4 5 10 14 14 9 10 17 16 13 12 11 11 11 11 12 12 12 14 15 13 13 10 11 11 13 12 14 16 16 13 10 12 11 11 15 15 14 16 15
-0 -1 -1 -1 0 0 5 10 13 11 9 8 12 12 11 12 9 10 10 11 11 12 14 13 14 13 11 11 11 7 11 14 15 15 14 12 13 11 11 12 14 15 14 14
-1 -2 -2 -1 -1 -1 4 7 9 8 11 9 9 8 9 11 11 8 9 11 11 12 15 14 14 14 14 12 10 12 14 17 15 14 11 11 11 11 10 12 12 13 14 13
-2 -2 -2 -1 -1 -1 3 7 8 7 9 8 9 9 10 11 10 9 10 10 9 9 13 12 16 15 15 16 13 14 14 17 15 13 12 11 11 10 10 10 10 11 13 13
-2 -2 -2 -2 -1 0 4 3 3 6 8 10 10 10 9 9 8 8 7 8 9 10 9 9 10 12 13 14 15 16 15 16 16 17 12 11 13 11 10 10 10 11 13 12
-2 -2 -2 -2 -1 -1 2 4 3 7 10 9 9 8 8 8 8 9 7 7 9 7 5 6 7 10 13 13 13 12 14 15 16 17 15 16 12 9 8 10 10 9 10 10
-2 -2 -2 -1 -2 -1 1 2 3 6 10 8 8 8 8 8 7 8 7 6 6 5 6 11 13 12 13 13 12 12 11 12 16 17 16 14 11 10 10 11 10 8 9 9
-1 -2 -2 -2 -2 -1 1 2 1 4 8 9 6 8 8 10 10 9 8 5 5 6 10 12 16 17 14 14 12 10 10 10 12 14 16 16 12 8 7 8 13 8 8 8
-1 -1 -2 -2 -2 -2 2 3 1 3 8 6 6 8 9 7 9 10 8 7 8 7 11 14 15 16 11 15 14 13 13 13 14 13 14 13 10 8 8 12 12 8 7 7
-0 -0 -1 -1 -1 -1 1 3 2 3 6 5 4 4 6 6 7 10 8 9 9 10 13 13 13 15 13 14 12 13 14 15 15 13 15 16 8 9 11 10 8 8 7 8
-0 -0 -0 -0 -1 -1 -1 4 2 1 4 5 3 3 2 3 4 7 8 9 8 8 11 11 11 13 12 14 17 10 15 12 14 13 14 9 8 10 9 7 8 8 7 7
0 0 0 -0 -0 -0 0 4 4 4 5 5 6 6 3 2 2 2 8 7 7 7 7 9 10 13 11 15 14 13 10 9 12 11 10 9 8 8 9 9 7 6 6 6
1 1 0 0 -0 -0 0 4 3 3 4 9 8 3 5 3 3 4 3 5 5 4 6 9 10 12 9 12 11 12 10 10 11 11 10 9 8 8 8 6 6 6 5 6
1 1 1 0 0 0 2 3 3 2 5 9 8 5 4 5 4 4 4 5 7 7 9 10 11 9 10 9 10 12 9 11 12 13 9 9 8 8 7 9 8 6 6 6
2 1 1 1 1 1 5 7 4 2 3 8 11 8 7 6 3 4 5 6 7 8 9 9 8 7 10 12 13 9 8 7 7 9 7 7 6 7 7 8 8 9 9 6
2 2 2 2 2 3 7 8 4 3 4 8 10 12 8 5 5 5 6 5 7 8 9 9 8 8 8 11 13 9 8 7 6 6 6 7 6 8 7 7 6 7 6 7
2 2 2 2 3 3 5 4 3 3 7 8 12 12 11 5 8 8 5 8 8 7 8 8 9 8 9 12 9 8 7 7 7 6 5 6 5 6 6 6 6 6 6 7
2 2 2 4 5 7 6 3 4 5 7 11 12 14 13 6 7 7 7 6 10 6 9 9 9 10 13 10 9 8 7 7 7 6 6 6 6 6 6 6 6 6 6 6
2 4 6 8 6 2 4 7 10 10 10 12 14 10 13 9 8 9 9 8 10 12 10 8 11 11 8 7 7 7 7 6 6 7 8 7 7 6 7 6 5 5 6 6
5 8 8 6 2 5 7 10 12 13 14 14 13 12 12 7 10 10 8 10 10 14 11 12 13 13 9 7 6 6 6 6 6 5 5 5 5 6 6 5 5 6 6 6
5 5 5 5 6 8 11 11 10 12 12 11 11 10 10 8 6 9 9 11 11 14 9 13 15 11 9 7 6 6 6 6 6 5 5 5 5 5 5 5 5 4 4 4
4 6 7 8 8 12 15 15 13 12 9 8 9 9 7 7 7 9 10 12 13 9 14 16 13 10 8 7 7 6 5 5 5 5 5 4 4 4 4 5 4 4 4 3
7 8 11 10 11 10 10 10 10 8 7 8 8 9 9 8 9 9 12 11 10 14 15 14 10 8 7 6 5 6 5 5 5 5 4 4 4 4 4 4 4 4 4 4
7 7 12 10 8 7 7 6 7 6 6 7 8 8 8 10 10 10 10 12 15 13 14 11 8 7 6 6 5 5 6 6 6 6 6 5 5 5 5 5 5 5 5 4
6 7 9 7 8 8 7 7 7 5 6 6 7 10 11 11 11 12 13 14 15 12 9 7 6 6 6 6 5 5 5 5 6 6 6 5 5 5 6 6 6 5 5 5
7 8 6 7 8 8 7 7 6 4 6 9 9 12 12 9 12 13 11 12 10 8 7 6 6 6 6 5 5 4 4 5 5 6 6 6 6 6 7 6 5 5 5 5

GFSNW_con_lsi_039.txt.gz
Lid_Strength_Index
2 2 2 2 3 3 7 13 16 11 10 16 17 17 14 12 12 11 13 13 14 15 14 16 16 15 14 11 11 14 13 17 15 13 12 9 10 12 13 16 18 17 15 15
-0 -0 -1 -0 0 0 6 10 11 7 8 15 16 14 12 11 13 12 13 14 13 13 15 16 13 13 11 11 13 13 12 17 19 17 15 14 13 12 12 13 16 15 17 16
-1 -2 -1 -1 -1 -0 5 9 10 9 7 8 11 13 12 13 10 10 10 12 11 13 15 13 14 14 11 12 12 9 12 17 17 17 17 14 15 13 12 13 16 15 14 15
-2 -2 -1 -1 -1 -1 3 8 8 9 11 10 10 8 9 11 11 8 9 12 12 13 16 14 15 13 14 12 11 13 15 18 16 15 14 13 13 12 12 14 13 14 13 14
-2 -2 -2 -2 -1 -1 3 7 8 6 8 7 10 9 10 11 10 9 10 11 10 11 13 13 14 14 16 16 14 16 15 17 16 16 13 12 13 12 11 11 11 13 14 14
-2 -2 -2 -2 -1 0 3 3 3 6 8 9 10 10 10 10 9 8 8 8 9 11 10 9 10 11 13 14 16 17 17 17 17 18 14 14 15 13 12 12 11 11 14 13
-1 -1 -1 -1 -1 -0 3 2 3 7 10 9 9 8 8 9 8 9 8 8 9 7 6 6 8 10 11 13 14 14 17 17 16 18 16 18 13 10 10 11 11 11 12 11
0 -0 -1 -1 -1 -1 3 3 3 6 10 8 8 8 8 8 8 8 9 7 6 7 7 11 13 12 13 12 13 14 14 16 17 18 18 15 12 11 11 12 12 10 10 10
0 0 -0 -1 -1 -1 3 4 3 4 8 9 6 8 8 10 9 9 8 6 6 6 10 12 15 17 15 14 12 13 13 13 14 16 18 18 13 10 8 9 12 9 9 9
1 0 0 -0 -1 -1 2 4 2 3 8 6 5 8 8 7 8 9 9 8 8 7 11 14 15 16 12 15 15 14 14 15 16 15 15 14 11 9 8 13 13 8 7 8
1 1 0 -0 -0 -1 2 3 3 5 6 6 4 4 6 6 7 10 9 9 9 10 12 13 14 14 13 14 12 14 14 15 16 14 16 17 9 9 13 11 8 8 7 8
1 1 1 1 -0 -0 1 4 3 2 4 6 4 3 3 4 4 6 7 8 9 9 11 11 11 13 12 14 16 11 15 12 14 12 13 10 8 9 8 8 9 9 7 6
1 1 1 1 0 0 1 4 4 4 6 6 6 6 4 3 3 2 7 6 6 8 6 9 10 13 11 14 14 13 10 9 11 11 10 9 8 7 8 9 8 7 6 7
2 1 1 1 1 1 1 4 4 4 6 9 7 4 6 4 4 3 4 5 5 4 5 8 10 12 8 12 11 12 10 10 11 10 10 8 8 7 8 8 8 6 6 6
2 1 2 2 1 1 2 4 4 4 7 10 8 5 6 6 5 5 4 6 7 7 8 9 11 9 10 10 10 12 9 11 12 13 9 9 9 7 6 8 9 8 9 9
2 2 2 2 2 2 5 8 5 3 4 8 11 8 7 6 6 5 6 7 7 8 9 9 8 7 10 14 14 9 8 7 7 9 7 7 6 6 5 7 8 7 8 8
2 2 2 2 3 4 8 9 5 4 4 8 11 11 9 7 5 7 7 7 8 8 9 9 10 9 9 12 15 9 8 7 6 6 7 8 7 7 6 6 6 6 7 7
2 2 3 3 3 4 6 4 4 4 7 9 12 12 11 6 8 9 6 8 9 9 9 9 10 9 9 14 9 8 7 7 7 6 6 6 6 5 6 6 6 7 7 7
2 2 3 5 5 8 7 4 4 5 8 12 12 14 14 8 7 7 7 7 11 8 9 9 9 12 13 10 9 8 7 8 7 6 6 6 6 6 6 6 6 6 6 6
2 4 6 9 6 3 5 7 10 11 11 12 14 11 13 10 8 9 9 8 10 12 10 9 12 13 9 7 7 7 6 6 6 8 8 7 8 7 7 7 8 8 7 6
6 9 9 8 3 6 7 10 13 14 15 14 13 13 13 8 11 11 9 10 10 14 11 12 13 13 10 7 6 6 5 5 5 5 5 5 5 6 6 6 5 5 5 5
6 6 5 7 7 9 12 12 11 14 14 11 12 11 11 10 7 9 9 12 11 14 10 13 15 11 8 7 7 6 5 5 5 5 5 5 5 5 5 5 5 5 4 4
5 7 8 8 8 12 14 15 12 12 9 8 9 9 8 7 7 9 10 13 13 10 14 16 13 9 7 7 6 6 5 5 5 5 4 4 4 4 4 5 4 4 4 4
7 9 12 10 11 10 10 10 10 7 7 7 8 8 9 8 9 9 12 11 10 14 15 15 10 8 7 6 5 5 6 5 5 5 4 4 5 4 5 4 4 4 4 4
8 8 12 10 8 7 7 7 7 6 6 7 8 8 8 9 10 10 10 12 14 13 14 11 8 7 6 6 6 7 7 7 8 7 6 6 6 7 7 6 5 4 4 4
6 7 9 7 8 8 8 8 8 6 6 7 8 9 10 11 11 12 13 14 14 12 9 7 6 6 6 5 6 7 8 9 9 9 9 9 9 9 8 7 7 7 7 7
7 8 7 8 8 8 8 8 8 6 6 9 9 12 12 9 12 13 11 12 10 8 7 6 6 6 5 5 6 7 7 8 8 9 8 8 8 8 8 9 9 8 7 7

GFSNW_con_lsi_042.txt.gz
Lid_Strength_Index
-1 -1 -2 -1 -1 -0 4 9 12 7 7 14 15 15 15 11 11 11 13 13 14 15 14 16 15 15 14 12 13 14 13 18 17 15 12 10 10 12 16 15 19 18 18 17
-1 -1 -1 -1 -0 0 6 9 8 5 5 14 14 12 11 11 11 12 13 13 13 13 15 17 13 13 11 11 12 13 13 17 20 18 14 14 14 13 15 16 17 15 18 17
-1 -1 -1 -1 -0 -0 6 9 11 9 7 9 11 12 12 12 9 9 10 11 11 13 15 14 15 14 11 12 11 9 13 17 18 19 17 15 16 13 13 14 16 15 15 15
-0 -1 -0 -1 -1 -0 5 9 10 9 12 10 9 10 10 10 11 8 8 10 12 14 17 16 15 12 14 12 11 13 15 18 17 16 14 14 14 14 13 14 13 15 14 14
-0 -0 -1 -0 -0 0 6 8 7 6 8 7 9 9 11 10 9 9 10 11 10 11 14 14 15 14 16 16 14 16 16 18 17 17 14 13 14 13 13 13 13 13 13 14
1 0 -0 -0 -0 1 4 3 3 6 8 8 10 10 10 9 8 7 7 8 10 11 11 10 11 11 12 13 16 17 18 18 17 19 15 15 16 14 13 13 13 12 14 12
1 1 1 0 -0 1 3 5 4 7 10 9 9 8 8 8 8 9 8 7 9 7 7 8 10 11 11 12 14 14 18 18 17 18 17 20 15 11 11 12 11 12 12 11
2 1 1 1 0 0 4 5 4 6 10 8 8 8 8 8 8 9 8 7 7 6 8 11 13 14 14 13 12 14 14 17 18 18 19 16 13 11 12 13 13 10 11 10
2 1 1 1 0 0 5 5 4 5 8 9 6 8 7 9 9 9 8 6 6 8 10 12 17 17 15 15 12 11 14 14 17 18 18 19 14 10 8 9 15 9 9 10
2 1 1 1 1 1 3 4 4 4 7 6 6 8 8 6 7 9 8 9 8 8 11 13 15 16 12 16 15 15 15 16 18 17 17 15 10 9 8 14 13 9 8 9
1 2 1 1 1 1 3 4 4 5 7 7 6 5 6 7 7 10 8 10 8 9 12 13 13 14 13 14 12 14 14 15 18 18 17 18 8 9 12 10 8 8 8 8
1 2 2 1 1 1 1 5 3 3 6 6 4 4 3 4 5 6 6 7 9 9 10 10 11 13 12 13 16 10 15 12 14 13 15 10 8 9 7 7 8 7 8 7
1 2 2 2 1 1 1 5 4 5 6 7 8 8 4 3 3 3 7 6 6 6 5 8 10 12 11 14 14 13 10 9 12 12 10 9 8 7 6 6 7 8 8 6
1 2 2 2 2 2 1 4 4 4 7 11 10 5 6 4 4 4 4 5 7 7 5 8 10 12 9 12 11 12 10 9 11 11 9 8 8 7 7 6 6 7 8 6
1 2 2 2 2 2 3 3 4 4 7 12 10 7 6 6 6 5 5 6 8 8 8 9 11 9 9 10 10 12 9 10 12 13 8 9 9 7 6 6 7 8 9 6
2 2 2 3 2 3 6 9 6 4 5 9 12 9 8 6 7 7 8 8 8 8 9 10 9 7 10 14 14 9 7 7 7 9 7 7 6 6 5 6 7 8 8 7
2 2 3 3 3 4 8 9 6 4 5 9 12 12 9 8 6 7 8 8 9 9 10 10 10 9 9 14 15 11 9 8 7 5 6 8 7 7 6 7 7 7 6 6
2 3 3 3 4 4 7 5 5 5 8 9 12 13 12 9 9 10 8 11 10 9 10 9 10 10 11 15 12 10 8 7 6 6 6 6 5 5 5 6 6 7 7 6
3 3 3 5 6 8 7 4 4 6 8 13 12 14 16 9 9 8 8 7 11 8 11 10 10 12 15 13 12 10 8 7 7 6 6 6 6 6 6 6 6 7 7 6
3 5 7 10 7 3 5 7 10 11 11 11 15 11 13 12 9 9 9 8 11 12 10 9 12 14 10 9 7 7 7 6 6 8 8 7 7 7 7 7 6 6 6 6
8 8 10 7 4 6 8 11 13 14 15 14 13 12 12 8 11 10 9 11 11 15 12 13 15 15 11 8 7 6 5 5 5 5 5 5 5 6 6 6 6 5 5 5
6 6 6 7 7 9 11 11 12 14 14 11 12 11 12 10 8 10 10 14 13 15 11 14 15 11 7 7 7 6 5 5 5 5 5 5 5 5 5 5 5 5 4 4
5 7 8 8 8 13 13 15 12 11 9 8 10 10 9 8 7 9 10 12 13 9 13 15 12 8 7 7 6 6 5 5 5 5 5 4 5 4 4 5 4 4 4 4
8 9 11 10 11 10 11 10 10 7 7 7 8 8 9 7 9 9 12 10 10 14 15 14 10 8 8 8 7 8 8 7 7 6 7 7 6 6 5 5 4 4 4 4
8 8 12 10 8 8 8 8 8 8 7 8 8 9 9 9 10 10 10 12 14 13 14 10 8 6 7 8 8 9 9 9 9 9 7 7 7 7 8 7 6 5 4 4
6 8 10 8 9 9 9 9 9 8 7 7 8 9 10 11 10 12 13 14 14 12 9 7 6 7 8 8 8 9 9 9 9 9 9 9 9 9 9 9 8 7 7 7
7 9 8 9 10 10 9 8 8 7 8 10 9 11 12 9 12 13 11 12 10 8 9 7 7 8 9 9 8 8 8 9 9 9 9 9 9 9 9 9 9 9 9 9

GFSNW_con_lsi_045.txt.gz
Lid_Strength_Index
0 -0 0 0 1 1 3 6 8 3 2 7 7 9 9 7 8 8 10 11 12 13 12 13 12 13 12 11 10 12 11 12 12 11 9 8 9 10 10 12 13 12 12 13
0 0 0 1 1 2 3 7 7 2 2 10 10 7 8 7 8 8 9 11 10 11 12 13 11 11 10 11 10 12 11 12 13 12 10 10 10 10 10 10 10 12 14 13
1 1 1 1 1 2 4 6 9 5 5 5 8 9 9 9 6 8 8 9 9 10 11 10 12 12 11 11 10 9 10 12 13 13 12 12 12 11 10 10 12 12 12 11
1 1 1 1 1 2 3 6 8 6 9 8 8 8 8 10 10 7 7 10 10 12 12 12 12 12 12 11 10 11 11 14 13 13 13 12 12 12 12 12 10 12 11 10
1 1 1 1 1 3 4 7 7 6 8 7 8 8 9 9 9 8 9 10 9 9 12 11 12 11 12 13 11 12 11 14 13 14 13 12 13 12 12 11 11 11 11 10
1 1 1 1 2 3 5 4 4 7 8 8 9 9 9 9 7 7 7 8 9 9 9 8 9 8 9 10 12 13 13 13 14 16 13 13 14 12 11 11 10 10 12 9
1 1 1 1 1 2 4 3 4 8 10 8 8 8 7 8 8 9 7 6 8 6 5 6 6 8 9 9 11 11 13 13 12 15 14 17 11 9 8 10 10 9 9 9
0 1 1 2 1 2 4 3 5 7 10 8 8 7 7 7 6 8 7 6 5 4 6 9 10 10 10 10 9 11 12 13 15 16 15 13 12 10 10 10 9 7 8 8
1 1 2 1 1 2 4 4 3 5 9 9 6 7 7 9 8 8 7 4 3 4 8 9 14 13 11 13 10 8 11 12 14 15 17 18 11 9 7 8 12 8 8 7
1 1 2 2 1 2 3 4 3 4 8 7 6 8 8 6 7 8 7 6 6 5 9 12 13 13 9 13 13 13 12 14 16 16 16 14 10 7 7 14 11 7 7 7
0 1 2 2 1 1 2 4 4 5 7 6 5 5 6 6 6 9 7 7 7 8 11 11 11 13 11 12 10 11 12 14 14 14 16 18 9 7 10 9 7 7 7 7
0 1 2 2 2 1 2 5 4 3 6 7 3 3 2 3 4 6 6 7 7 7 10 10 10 12 11 11 14 8 13 10 12 11 13 9 8 7 6 6 7 6 6 6
0 1 2 2 2 2 2 5 5 6 7 7 6 6 3 2 2 1 7 6 5 6 4 7 9 12 9 13 12 10 8 7 10 10 8 8 7 6 5 5 6 5 5 5
1 2 2 2 2 2 2 4 5 6 8 11 9 5 5 2 2 3 3 4 4 4 4 8 10 12 7 11 9 10 8 7 9 10 9 8 6 5 5 5 5 5 5 5
1 2 2 2 2 2 3 3 5 4 8 10 10 6 5 5 5 5 5 5 6 7 8 9 10 8 9 8 9 11 7 9 10 11 7 7 7 5 5 5 5 5 5 6
2 3 3 3 3 3 5 7 4 4 5 9 11 6 7 6 7 7 7 7 8 9 10 11 9 8 10 13 13 8 7 6 6 7 5 6 5 6 6 5 5 5 5 6
3 3 3 3 3 4 7 8 6 4 5 9 12 11 7 7 7 8 9 8 9 10 11 11 11 10 10 13 15 10 8 7 6 6 6 7 6 7 5 4 4 5 5 5
3 3 3 3 4 5 6 5 4 4 7 8 12 12 10 7 9 9 8 10 10 10 11 11 11 10 11 15 11 10 9 8 8 7 6 5 5 4 5 4 5 6 6 5
3 3 4 4 5 7 6 4 5 5 8 12 12 14 14 8 9 7 8 10 13 9 12 11 11 13 15 13 12 11 9 8 7 6 5 5 6 6 5 5 6 6 6 5
3 4 6 7 6 4 5 7 10 10 10 11 14 12 13 11 10 9 10 8 11 13 11 10 13 15 11 10 8 8 6 6 6 7 7 7 7 7 6 6 5 5 5 5
4 6 8 6 3 6 8 11 13 13 14 14 13 13 13 9 12 11 9 12 13 14 12 14 14 15 11 8 7 6 5 5 5 5 5 5 5 6 6 5 5 5 4 5
5 6 5 6 6 8 10 10 11 12 13 11 12 11 12 10 8 10 10 13 12 14 9 13 15 11 10 9 8 8 8 5 5 5 5 5 5 5 5 5 5 4 4 3
4 6 7 7 8 13 14 15 13 11 8 7 7 9 8 8 7 8 9 12 13 8 12 14 11 9 9 9 8 9 9 8 6 6 6 5 5 4 4 5 4 4 4 3
5 7 12 10 11 10 10 11 10 8 7 8 7 8 8 7 9 9 12 10 9 13 15 14 10 9 8 8 8 8 9 9 9 9 8 7 7 7 6 5 5 5 6 6
6 6 11 9 7 7 7 7 7 7 7 6 7 7 7 9 10 9 10 12 14 13 14 11 9 8 9 9 8 9 9 9 9 8 9 8 8 8 8 8 8 8 8 7
5 6 8 6 7 8 7 7 8 6 7 5 6 8 10 11 10 12 13 13 14 12 10 9 8 8 9 9 9 9 8 8 8 8 8 9 8 8 9 8 8 8 8 8
6 7 5 6 6 7 7 6 7 5 6 8 7 11 11 9 12 13 13 14 12 9 9 8 8 8 8 7 8 8 8 8 8 8 7 7 8 9 10 10 10 9 9 8

GFSNW_con_lsi_048.txt.gz
Lid_Strength_Index
0 0 1 1 2 3 3 4 8 2 1 5 5 7 7 6 6 5 6 7 9 9 9 10 10 10 9 9 8 9 8 9 10 10 8 7 7 8 8 11 11 10 10 9
0 0 1 2 2 3 3 6 5 2 2 8 8 6 6 6 6 7 8 9 7 7 8 10 10 10 9 9 9 9 8 10 11 10 9 8 9 8 8 8 8 10 11 10
0 0 1 2 2 3 3 6 8 4 3 3 7 8 8 8 5 6 6 9 8 9 8 7 10 10 9 9 9 8 9 9 9 11 9 8 10 9 8 9 10 10 10 9
0 0 0 2 2 3 3 4 7 6 8 7 7 7 7 8 9 6 5 9 10 10 11 9 9 9 10 9 9 9 9 10 10 9 10 10 9 9 9 9 9 10 9 8
0 -0 0 2 2 3 4 7 7 6 7 7 8 6 8 8 8 7 8 9 9 9 11 11 12 10 10 11 9 10 9 11 10 11 10 10 11 10 9 9 8 8 8 8
-0 -0 0 2 2 3 6 4 4 5 7 7 9 8 8 8 6 6 6 6 8 9 8 6 6 7 8 9 10 10 11 11 11 12 10 10 12 10 9 9 8 8 9 7
0 -0 0 1 2 3 4 4 5 8 10 8 9 7 6 7 7 8 6 5 7 6 4 4 5 6 7 8 9 9 11 11 11 12 11 15 9 6 7 8 8 7 7 6
0 0 0 2 2 2 4 4 6 8 10 8 8 7 7 6 6 6 6 5 4 3 4 7 9 8 9 9 9 9 9 11 12 13 13 11 9 9 9 9 8 6 7 6
0 0 0 1 2 2 4 4 4 6 9 9 7 8 6 8 8 7 5 3 2 3 6 8 12 11 10 10 9 8 10 10 12 12 14 14 10 7 7 7 10 6 6 6
1 0 1 2 2 2 3 5 4 6 10 7 6 8 8 6 6 8 6 6 5 4 8 10 11 11 8 11 11 11 11 12 14 13 14 11 8 7 6 12 11 6 6 6
1 1 2 2 2 2 2 4 4 6 9 7 5 4 6 6 6 9 6 6 6 6 10 9 8 10 8 10 8 9 10 12 13 13 14 15 8 8 9 8 6 6 5 5
1 2 2 2 2 2 2 4 4 4 7 7 4 3 2 3 3 5 6 6 6 4 8 7 9 10 8 9 12 6 11 9 10 10 12 8 7 7 6 5 5 5 5 4
2 3 2 3 2 2 2 3 5 5 8 8 7 6 2 0 1 1 7 5 4 5 3 7 7 11 8 11 9 8 7 6 9 9 8 8 7 6 5 5 5 4 4 4
3 3 2 3 2 2 2 4 4 5 8 11 8 4 5 3 2 3 3 4 4 4 4 7 9 11 6 9 8 8 7 7 8 8 7 7 7 6 6 6 4 4 3 3
3 3 3 3 2 2 2 3 4 4 8 10 9 5 5 5 5 5 5 6 7 8 9 10 10 9 9 8 8 9 6 7 9 10 6 6 6 5 5 6 6 5 5 4
3 3 3 3 3 3 3 6 4 4 5 10 12 6 6 6 6 7 7 7 7 8 10 11 9 7 10 12 12 8 6 6 6 7 4 5 5 4 5 6 6 5 5 3
3 3 3 3 4 3 5 6 5 4 4 10 12 10 7 7 7 8 8 7 8 9 10 11 11 10 10 13 15 10 8 7 6 6 6 6 5 6 5 5 5 5 3 3
3 3 3 4 4 5 5 4 5 4 7 9 12 11 9 7 9 10 8 10 9 10 12 11 11 11 12 15 12 10 10 9 8 7 7 7 5 5 6 5 4 5 4 4
3 3 3 3 5 6 6 4 5 5 8 12 13 14 13 8 8 7 9 9 13 10 13 13 11 14 15 13 13 13 10 9 10 8 7 7 7 6 5 5 5 5 5 5
3 4 3 6 5 3 4 7 9 9 10 11 14 13 14 10 9 9 9 8 11 13 12 10 13 14 12 10 9 8 6 5 5 7 7 6 6 6 5 5 4 5 5 5
2 3 4 5 3 6 7 9 11 12 13 12 12 11 13 8 11 10 9 11 12 13 11 12 13 14 11 9 10 7 6 5 5 4 4 4 5 5 5 5 5 5 5 5
3 4 4 5 5 5 8 9 9 10 11 7 10 9 10 9 8 9 8 11 10 14 7 11 14 11 9 10 10 8 7 6 6 5 5 4 4 5 5 5 5 4 5 6
1 2 5 6 6 11 13 14 12 11 7 6 7 8 6 6 7 8 8 11 12 7 12 15 12 8 8 8 9 9 7 8 7 7 6 7 7 6 6 6 5 5 6 6
4 6 12 8 9 9 9 9 8 6 6 6 6 7 7 6 8 8 11 9 8 12 15 14 10 9 8 7 7 7 8 8 8 8 8 8 8 9 7 7 7 6 5 5
5 5 11 8 6 5 5 4 5 5 4 5 6 6 5 7 8 8 9 11 14 13 13 11 8 8 8 8 7 7 7 7 7 8 8 8 8 9 9 9 8 8 7 6
4 5 6 5 6 6 5 5 5 3 4 3 4 7 8 9 8 10 12 13 14 12 10 8 7 6 6 7 7 7 7 7 7 7 7 8 9 8 9 8 9 9 8 9
5 5 4 4 5 5 5 4 4 2 4 6 6 9 10 6 9 11 9 12 11 10 7 6 6 6 6 5 6 6 6 7 7 7 6 7 7 7 7 8 8 8 9 9

GFSNW_con_lsi_051.txt.gz
Lid_Strength_Index
-0 0 -0 1 1 3 3 3 7 2 1 5 4 7 6 6 5 4 6 6 7 9 11 11 10 10 8 7 7 8 6 7 10 8 6 6 6 7 7 10 10 9 9 9
-0 -0 0 0 1 3 4 5 5 2 2 8 7 5 6 5 6 6 7 8 7 6 10 12 10 9 7 8 7 8 7 9 11 10 7 7 8 7 7 7 7 9 10 9
-0 -0 0 1 1 2 3 5 8 4 4 4 6 7 7 7 5 6 6 7 6 8 8 8 10 10 8 7 8 7 7 8 10 11 9 7 9 8 7 7 9 9 9 8
-1 -0 0 1 1 2 3 6 8 6 9 7 6 6 6 7 8 6 5 7 8 9 11 10 12 10 8 7 7 7 8 10 9 8 8 7 7 8 8 8 7 9 8 8
-0 -0 0 1 1 3 5 8 8 6 8 6 6 6 7 7 7 7 7 8 8 7 10 10 12 10 9 10 8 8 7 10 9 10 8 8 9 7 8 8 7 7 7 7
-0 0 0 0 2 4 6 5 5 7 8 7 8 7 7 7 6 5 5 6 7 7 7 5 5 6 7 9 10 10 9 9 10 12 9 9 11 8 8 7 6 7 8 6
-0 0 -0 1 2 3 3 5 7 10 11 8 8 7 6 7 6 7 6 5 6 5 3 4 4 5 6 8 9 8 10 10 10 11 10 15 8 6 6 7 7 6 6 5
-0 -0 1 2 2 2 3 4 7 9 11 8 8 7 7 6 6 6 6 5 3 2 5 7 9 8 7 8 9 9 9 10 11 12 12 9 8 7 7 7 8 6 6 5
0 1 2 2 2 2 3 4 4 7 11 10 7 7 7 8 8 6 5 3 2 3 6 8 11 12 10 10 9 8 9 9 11 11 13 14 8 6 6 5 10 5 5 5
1 2 2 2 2 2 3 4 3 7 10 8 7 8 8 6 6 7 5 5 5 3 7 10 11 11 8 11 10 10 11 11 13 12 12 10 6 5 5 11 11 6 5 5
2 2 2 3 2 2 2 3 3 7 10 8 6 6 6 6 6 8 6 6 6 6 9 9 10 10 9 9 8 9 10 11 12 12 13 13 6 7 8 7 5 6 5 5
2 3 3 3 2 2 2 4 4 4 8 8 5 5 4 3 3 5 5 5 6 5 8 9 8 10 8 9 11 6 10 8 9 9 10 6 6 6 5 5 6 5 5 4
3 3 3 3 2 2 2 3 5 6 9 8 8 7 4 3 3 2 7 5 4 4 3 6 6 10 7 11 9 8 6 5 8 8 7 7 6 5 5 5 6 5 5 3
3 2 3 3 2 2 2 5 5 6 9 11 7 4 5 3 3 3 4 5 4 5 5 7 8 9 5 8 8 8 7 6 7 8 7 7 6 6 6 5 5 5 4 4
2 3 3 3 3 3 2 3 4 4 8 10 9 5 5 4 4 4 4 5 6 7 8 8 9 8 8 8 7 8 5 7 9 9 6 6 6 5 5 6 6 5 5 5
3 3 3 3 3 3 3 7 4 4 5 9 11 6 6 5 6 6 6 6 6 6 8 9 8 7 9 11 11 8 7 6 6 7 5 5 5 5 5 6 5 5 5 5
2 3 3 3 3 2 5 6 5 4 4 9 11 10 6 6 6 7 7 6 7 8 9 11 11 10 11 13 14 10 9 9 8 6 5 7 6 6 5 5 5 5 5 4
3 3 3 4 4 5 5 4 4 4 7 8 12 11 9 7 9 10 8 10 9 10 11 11 12 12 13 15 12 12 12 11 11 9 8 7 5 5 5 5 5 6 6 5
3 3 3 3 3 5 5 4 5 5 7 12 12 13 13 8 9 8 10 10 13 10 12 12 13 13 15 14 13 11 8 7 7 6 6 7 7 6 6 6 6 7 6 5
3 3 4 5 4 4 4 6 7 9 9 10 13 11 12 9 9 9 9 10 11 13 11 10 13 14 9 9 9 9 8 7 5 6 7 7 8 6 5 5 6 6 5 4
1 2 4 3 3 5 5 7 7 6 10 9 8 10 11 8 11 10 8 10 11 13 10 10 12 14 10 9 8 8 8 7 6 4 4 5 5 5 5 4 4 4 4 4
2 1 1 4 5 5 7 8 7 8 10 6 7 7 8 6 7 8 8 10 9 12 7 11 14 11 8 7 8 7 7 7 7 6 6 4 4 4 5 5 5 4 4 5
-0 2 4 5 5 11 12 14 11 10 7 5 6 7 6 6 6 8 7 10 11 6 11 14 12 8 7 6 6 7 5 7 7 7 6 6 7 7 7 7 5 5 5 5
2 5 12 7 8 7 7 7 6 4 4 5 5 6 5 5 7 7 10 8 8 12 15 14 9 8 7 6 6 6 7 6 7 7 7 8 8 9 9 8 7 8 8 8
4 4 11 7 5 4 4 3 4 3 3 4 5 6 5 6 8 7 8 10 14 13 13 10 7 5 6 7 7 7 7 6 7 6 7 8 8 9 9 9 8 9 9 8
3 4 6 4 5 5 4 4 4 3 3 3 4 6 8 8 7 9 11 12 14 11 9 7 5 4 4 5 5 7 6 6 6 6 7 7 8 8 8 8 9 9 9 9
5 5 3 4 4 5 4 3 4 2 4 6 5 8 9 6 9 11 8 10 8 6 5 5 3 4 4 4 5 5 6 6 6 6 6 6 6 6 7 7 8 8 9 8

GFSNW_con_lsi_054.txt.gz
Lid_Strength_Index
-0 -1 -1 0 1 2 2 4 7 2 2 7 6 7 7 7 6 5 6 6 7 8 9 12 12 13 10 7 7 9 6 8 10 9 6 6 7 8 8 10 11 10 10 10
-1 -1 -0 0 1 2 4 6 5 1 2 9 9 7 6 6 6 6 6 7 6 6 9 13 11 11 8 8 8 9 8 9 12 11 8 6 8 7 7 7 8 10 11 10
-0 -0 0 1 1 2 4 6 8 5 4 5 7 8 8 7 5 6 6 7 6 7 9 10 12 13 10 9 8 6 7 9 10 12 10 8 9 8 7 8 10 10 9 8
-0 -0 0 0 2 3 4 6 8 7 9 9 8 7 7 8 8 6 7 8 8 8 10 10 11 11 11 9 7 7 7 11 9 8 8 8 8 8 8 8 8 10 8 8
0 0 0 2 2 3 5 8 9 8 9 8 8 8 9 8 7 7 7 7 8 7 8 9 11 11 11 12 10 10 8 11 9 11 8 8 9 8 8 8 7 8 7 8
0 0 1 2 2 3 6 5 5 9 10 9 9 9 8 8 7 6 5 6 7 7 7 5 6 8 8 9 11 11 10 10 11 13 9 9 11 9 8 7 7 7 9 6
0 1 1 2 2 3 4 4 7 11 13 10 9 8 7 8 7 8 6 5 6 5 3 3 4 6 7 8 9 9 11 10 10 12 11 16 9 6 6 7 6 6 6 5
1 2 2 2 2 2 2 3 7 10 13 10 9 8 7 7 6 7 6 5 4 3 4 7 9 9 8 8 8 9 9 10 12 13 13 11 9 7 7 8 8 5 6 5
1 2 3 3 2 2 1 3 5 9 12 11 8 9 7 9 8 7 6 3 2 3 6 8 12 13 11 10 10 8 9 9 11 11 14 15 9 6 5 5 10 7 5 5
2 2 2 2 2 2 2 3 4 8 12 10 9 10 9 6 7 8 6 5 5 4 8 10 11 12 9 11 11 11 11 11 13 12 13 10 7 7 5 11 13 6 6 6
2 2 2 2 2 2 2 4 4 7 10 9 7 6 8 7 7 9 7 6 7 7 11 11 11 12 10 9 9 12 11 11 12 11 12 14 7 7 10 8 6 6 5 5
2 2 2 2 2 2 2 5 4 5 8 8 5 5 4 5 5 6 5 7 6 6 10 9 9 10 8 10 13 7 12 9 10 9 10 6 7 7 6 6 6 7 7 7
2 2 2 2 2 2 3 4 5 6 8 8 8 6 3 2 2 2 8 5 4 5 4 6 7 9 7 11 10 9 7 7 9 8 7 7 7 6 6 6 6 6 7 7
2 2 2 2 2 2 3 5 5 6 8 11 8 3 4 2 3 3 4 4 4 4 5 7 7 9 6 9 8 9 8 7 8 8 7 7 7 7 7 7 6 6 6 7
2 2 2 2 3 3 2 3 4 4 8 10 8 5 3 3 4 4 4 4 5 6 7 8 9 7 8 7 7 8 6 8 10 10 7 7 7 6 6 6 6 6 6 6
3 3 2 3 3 3 3 7 4 4 4 9 10 5 6 5 5 6 5 5 5 6 8 9 8 7 9 11 11 8 7 6 6 8 6 6 6 5 6 6 6 6 6 5
3 3 3 3 3 3 5 6 5 4 4 9 11 10 7 6 6 7 7 6 6 7 9 11 11 10 10 12 14 10 11 11 10 9 8 9 7 7 5 5 5 5 5 4
3 3 3 4 4 5 5 4 4 4 6 8 12 10 9 7 9 10 8 9 9 9 10 10 12 12 12 14 12 11 10 9 7 6 7 9 7 7 6 5 5 5 5 5
3 3 3 2 4 5 4 4 4 3 6 10 10 12 11 6 8 9 10 10 12 9 12 12 11 13 14 11 10 9 10 10 8 5 5 7 8 7 7 6 6 6 6 5
3 3 3 5 3 4 4 5 7 6 5 6 10 9 9 8 7 9 9 10 11 13 10 10 13 13 8 7 8 8 9 8 7 8 8 6 7 7 7 7 6 5 5 5
2 3 4 2 4 5 5 6 7 6 10 7 7 6 8 5 9 9 7 9 9 12 10 10 12 13 9 6 7 8 7 7 7 7 6 5 5 5 6 5 5 5 5 5
1 1 1 2 5 5 7 8 7 7 9 6 7 6 6 5 5 8 8 10 9 12 7 11 15 10 7 7 6 7 7 7 8 7 7 6 6 6 6 5 4 4 4 4
0 2 4 4 5 11 11 14 9 8 6 5 5 8 7 5 5 8 8 9 10 6 11 14 11 7 7 6 7 6 6 6 7 8 7 7 8 7 8 7 6 5 5 5
3 5 12 6 7 7 6 6 6 4 4 4 5 7 8 6 6 6 10 8 7 11 15 13 9 7 6 6 6 7 7 6 6 7 7 7 7 8 8 8 7 6 6 6
4 4 11 7 5 4 4 3 4 3 3 4 5 6 6 7 7 7 8 10 13 12 13 9 7 6 5 5 5 7 7 7 6 6 6 7 6 7 8 8 8 8 7 7
3 4 6 4 5 5 4 4 4 3 3 3 4 6 8 8 8 10 11 12 13 11 9 7 5 5 4 4 4 4 6 7 6 6 6 6 7 6 7 7 8 8 8 9
5 5 3 4 4 5 4 4 4 2 4 6 5 8 9 6 8 10 7 9 7 5 4 4 3 4 4 3 4 4 4 4 5 6 6 6 6 6 6 7 8 8 9 8

GFSNW_con_lsi_057.txt.gz
Lid_Strength_Index
0 -0 0 1 1 3 5 6 9 3 2 8 8 10 8 7 8 7 8 7 8 9 9 10 12 14 12 9 10 13 10 12 13 12 9 7 8 10 11 12 14 14 14 13
0 0 0 1 2 3 5 8 7 3 4 11 11 9 9 7 8 8 8 8 7 8 10 11 10 12 10 9 11 12 11 13 16 13 11 9 9 9 9 11 12 14 14 13
1 1 1 1 3 3 5 7 10 7 6 7 10 11 10 9 6 6 7 7 7 9 11 8 10 12 10 10 10 8 8 12 14 16 13 11 11 9 9 10 13 13 11 13
1 1 1 2 2 2 4 7 10 8 12 11 11 9 9 10 10 7 6 8 8 10 12 11 11 9 12 11 9 10 12 15 12 12 10 9 9 9 9 10 10 12 11 11
1 1 2 2 2 3 6 9 9 9 11 10 11 10 10 10 9 8 9 9 8 9 11 10 12 10 12 13 11 13 12 15 12 13 10 9 10 9 9 9 9 10 10 10
1 1 2 2 3 3 6 5 6 9 11 11 12 11 9 9 7 7 6 7 8 9 8 6 7 6 9 11 11 13 14 14 14 16 11 11 14 10 9 9 8 9 11 10
1 2 2 2 3 3 4 4 7 11 14 12 12 10 9 8 8 9 7 6 8 6 4 4 5 6 9 10 11 11 14 14 14 15 13 19 11 8 8 8 8 8 8 8
2 2 2 2 2 3 4 4 8 11 14 11 11 10 9 8 7 8 7 6 5 4 5 9 10 10 11 11 10 12 12 13 15 16 15 13 10 9 10 10 12 8 9 8
1 2 2 2 2 2 3 4 6 9 13 12 10 10 9 10 9 8 7 4 3 4 8 10 15 15 12 13 11 11 11 11 14 14 17 17 13 10 8 7 15 8 8 8
1 1 2 2 2 2 3 4 5 8 12 10 10 11 10 8 8 9 7 7 7 5 10 13 14 15 11 15 15 13 14 13 15 15 15 14 11 10 7 15 14 8 8 7
1 1 2 2 2 2 3 4 4 8 11 10 8 7 8 8 8 10 7 8 8 9 12 13 13 14 12 12 12 13 13 14 14 14 15 17 10 10 13 10 7 8 8 9
1 2 2 2 2 2 2 5 4 5 9 8 6 5 5 5 5 7 6 7 8 7 10 10 10 12 10 11 16 9 14 12 15 13 15 11 10 10 9 9 10 8 9 9
2 2 2 2 2 2 3 4 5 6 8 8 7 7 4 3 3 3 7 6 5 6 5 8 9 11 10 13 12 11 9 8 12 13 11 11 10 9 10 10 10 9 9 9
2 2 2 2 2 2 3 5 5 6 8 10 8 4 6 3 3 3 3 4 4 4 5 8 9 11 8 11 11 11 9 9 12 13 12 11 10 10 10 10 9 9 9 9
2 2 2 2 3 3 3 4 4 4 7 10 9 6 5 4 4 5 4 4 5 7 8 9 10 8 9 9 9 10 9 11 12 14 11 13 12 10 10 11 11 10 9 9
3 2 3 3 3 3 4 7 4 4 4 9 11 6 6 5 5 6 6 6 6 7 9 9 8 6 9 11 12 9 8 8 8 10 9 10 10 10 9 10 10 10 9 8
3 3 3 3 3 3 6 7 5 4 4 8 10 9 7 6 6 7 7 6 8 8 10 11 11 11 10 12 14 11 9 7 7 6 6 7 7 9 7 8 8 8 8 8
3 3 3 4 4 5 5 4 3 3 6 7 10 9 8 6 8 9 7 9 9 9 10 10 11 11 12 14 12 10 9 9 9 7 5 6 5 5 6 7 8 9 9 8
3 3 3 3 4 4 5 4 4 3 6 9 9 11 11 6 7 8 9 8 12 9 12 12 12 13 13 10 10 10 10 10 10 8 7 6 6 6 6 7 7 8 9 8
3 3 4 5 4 3 3 5 6 6 6 6 11 7 10 7 7 8 9 9 10 12 10 10 13 14 8 7 7 8 8 8 9 9 9 8 8 6 6 7 7 7 7 7
3 4 4 4 3 4 5 7 8 8 10 7 8 7 9 5 9 9 7 10 9 13 11 11 12 14 9 7 7 7 7 8 8 7 7 7 7 7 6 5 6 6 6 7
2 3 0 2 4 6 8 9 7 8 10 7 8 7 7 6 5 8 8 11 10 14 8 11 14 10 8 7 7 7 6 7 7 7 8 7 7 7 6 6 5 4 4 4
1 3 5 6 6 11 11 12 10 9 6 5 6 8 6 6 6 8 9 10 12 7 11 13 11 7 6 6 7 8 6 6 6 7 7 8 8 8 8 7 6 5 5 4
5 6 10 8 8 8 7 7 7 5 5 5 5 7 8 7 8 7 10 9 9 12 14 13 9 7 6 5 5 8 8 7 6 6 6 7 8 9 9 9 8 8 8 6
5 5 11 8 5 5 5 4 5 4 4 5 6 6 6 7 8 8 8 11 13 12 13 10 7 6 5 5 6 5 6 7 7 7 7 6 7 9 9 9 8 8 7 8
4 4 7 5 6 6 5 5 5 3 4 4 5 7 8 9 8 9 10 12 14 11 8 6 5 5 5 5 5 5 5 4 5 7 7 7 7 7 8 8 8 8 8 9
4 6 4 5 5 5 5 4 4 3 5 7 6 8 9 7 9 10 9 10 8 7 6 5 4 5 5 4 5 5 4 4 4 4 6 7 7 6 7 9 8 8 8 8

GFSNW_con_lsi_060.txt.gz
Lid_Strength_Index
1 1 1 2 3 3 5 10 13 6 4 11 12 14 11 8 9 8 9 9 11 12 12 13 13 13 10 8 9 12 10 13 16 14 11 10 9 11 12 13 16 16 15 13
1 1 1 2 3 3 5 11 11 7 7 14 15 12 11 8 9 8 9 9 9 10 12 14 12 10 7 6 10 12 11 13 17 15 14 12 13 12 13 14 14 15 14 13
1 1 2 2 3 3 8 11 14 11 10 12 14 13 12 11 7 8 7 8 8 10 12 11 12 10 8 6 8 8 9 13 15 18 17 14 14 13 11 13 14 14 13 12
1 1 2 2 3 3 8 12 14 12 15 13 13 12 12 11 11 8 7 8 9 10 13 12 12 10 9 7 7 10 11 16 15 15 15 14 13 13 10 12 12 13 12 13
1 1 1 2 2 3 9 12 11 12 11 11 12 12 13 11 9 8 9 10 9 9 12 11 12 10 11 10 9 11 12 16 16 17 14 13 12 10 10 10 11 11 11 12
1 1 1 2 2 4 9 9 9 9 11 12 12 14 11 10 8 7 7 8 9 10 9 7 7 7 7 8 11 13 14 16 17 18 13 12 14 12 11 10 10 11 11 10
1 1 1 1 2 3 5 8 8 11 14 12 12 11 10 9 9 10 7 7 9 7 4 5 7 9 8 7 12 10 13 15 17 18 14 18 12 10 10 11 10 9 10 9
1 1 1 1 1 3 5 5 8 11 14 12 11 10 9 8 8 8 7 7 5 4 6 11 12 12 11 10 11 11 11 14 18 19 16 13 12 11 12 12 12 9 9 8
1 1 1 1 2 2 4 5 6 9 12 12 9 10 9 10 9 9 7 5 5 6 10 12 15 17 15 15 12 10 12 13 16 17 17 19 14 11 9 8 15 9 10 9
1 2 2 2 2 2 4 5 5 8 11 10 10 11 10 8 8 9 8 7 8 6 11 14 15 16 12 16 16 14 14 15 17 16 16 14 12 11 10 15 13 9 10 10
2 2 2 2 2 2 4 5 5 7 10 9 8 7 9 8 8 10 8 10 8 9 12 13 13 14 13 14 12 13 14 15 16 16 17 19 11 12 14 13 12 11 11 10
2 2 2 2 2 2 3 6 4 4 8 8 6 6 5 6 6 7 7 8 9 8 11 11 11 13 12 12 16 10 15 13 15 16 15 13 12 12 10 10 12 12 11 11
3 2 2 2 2 2 3 5 5 6 8 8 8 7 5 4 4 3 8 7 6 7 7 10 11 13 12 15 13 12 11 10 13 15 13 13 13 12 10 11 12 11 11 11
2 2 2 2 3 2 4 5 5 6 8 12 9 4 5 4 4 4 4 5 5 6 8 11 12 14 11 13 12 12 11 10 13 15 14 13 12 12 12 12 11 11 11 11
2 2 3 3 2 2 3 5 6 6 8 11 10 8 6 6 6 5 5 6 6 8 9 9 11 10 10 11 11 12 10 12 14 16 13 12 12 11 11 12 12 11 11 11
3 2 3 3 2 2 4 7 5 5 7 11 13 8 6 6 6 7 7 6 7 7 9 10 8 7 10 12 13 10 9 8 9 11 10 10 9 9 10 11 11 11 11 10
3 3 3 3 3 6 8 8 6 4 6 11 13 11 8 6 6 8 8 7 9 9 10 11 11 10 10 13 14 11 9 8 8 8 9 10 8 9 8 9 9 9 9 10
3 3 3 4 4 5 7 6 4 4 8 9 11 10 9 6 8 9 8 10 9 9 10 10 11 11 12 15 12 11 9 9 9 8 7 8 8 8 8 7 8 9 10 10
3 2 3 4 6 6 7 3 3 4 6 10 10 12 12 7 7 8 9 10 10 7 10 11 11 13 14 11 10 10 9 10 10 8 8 8 8 8 8 8 8 9 9 10
3 5 5 7 6 2 3 7 7 7 8 8 12 9 10 8 8 9 9 9 10 12 9 8 11 14 9 8 8 8 8 8 8 10 10 10 9 9 8 7 6 8 9 9
5 6 6 6 2 6 6 8 10 10 12 9 10 9 10 6 9 9 8 10 9 13 11 11 12 12 10 8 8 8 7 7 7 8 8 8 8 9 8 7 5 6 6 7
4 5 4 6 7 7 10 10 9 10 11 8 9 8 7 7 6 8 8 11 10 14 8 11 13 9 8 7 8 8 8 6 7 7 8 8 8 8 8 7 7 6 6 5
4 6 7 7 8 12 12 14 11 11 8 8 9 9 7 7 7 9 10 11 12 8 11 13 11 8 7 7 6 7 8 7 6 6 7 7 8 8 8 8 7 7 7 7
6 8 13 10 10 9 10 10 10 8 8 7 9 8 9 8 9 8 11 10 9 12 14 13 11 8 6 7 6 8 7 7 7 7 7 7 8 8 8 8 8 8 8 8
7 7 10 8 8 9 8 7 8 7 7 7 9 8 8 9 10 9 10 12 14 13 13 11 8 7 7 7 7 8 7 7 6 7 7 7 7 8 8 8 8 8 9 9
6 6 8 7 9 9 8 8 9 7 7 7 7 9 10 11 10 11 12 13 15 12 10 8 7 8 8 7 8 8 7 6 7 6 6 7 7 8 8 8 8 8 9 9
6 8 7 7 8 9 8 8 8 7 8 10 9 11 12 9 12 12 12 13 11 10 9 7 6 8 7 7 8 7 6 6 7 6 6 6 7 7 8 9 8 8 8 8

GFSNW_con_lsi_063.txt.gz
Lid_Strength_Index
1 1 1 2 2 3 7 11 13 7 8 12 14 14 13 10 10 9 10 11 12 13 13 14 14 14 12 7 9 12 11 14 16 14 11 11 12 13 11 14 16 17 16 13
1 1 1 2 3 3 6 12 13 8 9 16 16 13 12 10 11 10 10 10 9 10 13 15 13 11 8 7 9 11 12 14 17 15 14 13 15 13 14 14 15 16 16 13
1 1 1 2 2 3 8 12 14 12 12 13 15 14 13 12 9 9 8 9 8 9 11 11 13 11 8 7 8 7 8 14 16 18 16 15 17 15 15 15 17 13 14 13
1 1 1 2 2 2 7 12 15 14 16 15 15 14 13 12 11 8 8 9 10 11 12 12 13 11 10 8 7 9 10 15 13 14 14 14 16 16 15 16 14 16 12 14
1 1 1 1 2 3 9 13 13 13 12 12 12 14 14 12 11 10 10 10 9 9 12 11 12 11 12 11 9 11 11 13 14 15 13 14 16 15 14 13 12 12 13 13
1 1 1 1 2 4 10 10 9 9 11 12 13 14 11 11 9 8 7 8 10 11 9 7 8 8 9 10 10 12 12 13 14 18 14 15 16 13 11 11 11 11 13 11
1 1 1 1 2 3 6 7 8 10 13 12 12 11 10 10 8 10 8 7 10 7 5 5 7 8 8 8 9 9 12 13 13 18 16 19 13 11 11 11 11 10 10 10
1 1 2 2 2 2 5 6 8 10 13 11 11 10 10 9 8 8 8 7 6 5 7 11 13 13 12 10 9 9 9 12 15 17 18 14 12 12 13 13 13 12 11 11
2 2 2 2 2 2 4 5 5 8 11 11 9 10 9 10 9 9 7 5 6 6 9 12 15 16 14 15 12 8 9 10 14 16 19 21 14 12 11 10 15 12 12 13
2 2 2 2 2 2 4 5 5 8 11 9 9 10 10 8 8 10 8 8 8 6 11 13 15 16 12 16 16 15 14 13 16 17 17 15 12 13 10 16 16 12 12 13
3 2 2 2 2 2 4 5 5 7 9 9 8 8 9 8 8 10 7 9 9 10 12 13 13 14 13 14 12 14 14 15 16 16 17 19 12 13 14 13 11 12 13 12
3 2 2 2 2 2 2 5 4 4 8 8 6 5 5 6 5 7 6 8 10 8 11 12 11 13 12 13 16 11 15 13 14 16 16 12 12 13 12 11 13 12 13 12
2 2 2 2 2 2 3 5 5 6 8 10 10 7 4 4 4 3 8 6 6 8 9 10 11 13 12 14 14 13 11 10 13 14 13 13 12 12 11 11 12 11 10 11
2 2 2 2 2 2 4 7 6 6 9 13 11 5 6 4 4 4 4 5 4 7 10 12 12 13 10 12 11 12 11 11 13 14 13 13 12 11 11 11 11 11 10 10
2 3 3 2 2 2 4 6 7 7 8 12 12 9 7 7 6 5 6 8 8 9 10 11 11 9 10 11 11 12 10 12 13 15 12 12 13 11 10 11 11 10 10 10
2 3 3 2 2 3 4 8 6 6 6 11 12 8 9 8 7 8 7 6 8 8 9 10 9 9 10 12 13 10 9 8 9 12 11 10 10 10 8 9 9 10 10 9
2 3 3 2 3 5 7 8 6 4 7 11 10 9 6 7 8 10 10 8 8 9 10 11 11 11 11 13 14 10 9 8 8 8 9 11 9 10 9 8 8 8 8 9
2 3 3 3 3 4 7 6 4 5 9 10 13 10 8 6 9 10 10 12 10 8 9 9 11 11 12 14 11 10 8 8 8 9 8 9 9 9 9 8 8 9 9 9
3 3 2 5 6 8 7 3 3 5 7 9 10 11 13 7 7 8 10 11 11 9 10 9 10 13 14 12 11 10 9 9 9 8 8 9 9 10 9 9 8 8 8 9
3 5 5 7 6 2 3 7 7 7 8 9 11 8 10 8 8 8 9 9 10 12 9 8 11 12 11 10 9 9 9 8 9 10 11 10 10 10 10 10 9 8 8 9
6 7 5 6 3 6 6 8 9 9 10 9 9 8 10 7 9 9 8 10 9 13 11 11 11 12 10 9 9 8 9 8 8 9 9 9 9 9 9 9 9 8 7 7
5 6 5 7 7 7 10 10 9 10 11 8 9 9 8 6 6 8 8 11 10 13 8 11 16 10 8 8 7 7 9 8 8 8 8 8 8 8 8 9 9 9 7 7
5 6 8 8 8 13 12 15 12 12 10 9 9 10 7 8 8 8 10 12 12 9 12 12 11 8 7 8 7 7 8 7 7 7 8 8 8 8 8 9 8 8 8 8
6 8 12 10 11 11 10 11 11 9 9 9 10 9 9 9 9 9 11 10 10 13 18 15 10 7 8 8 7 9 9 7 6 7 7 8 9 9 8 8 8 9 9 8
7 7 11 10 9 9 9 8 9 8 8 9 9 8 9 10 10 10 11 12 16 12 15 11 9 8 8 8 8 9 9 7 7 6 6 7 8 8 9 8 8 8 9 9
6 7 9 9 10 10 10 9 9 9 9 9 9 10 10 11 12 12 13 13 17 14 11 9 8 8 9 9 8 9 8 8 8 7 6 6 6 9 8 8 8 7 8 8
7 8 8 9 10 10 9 9 9 9 9 11 11 12 13 12 13 13 13 14 12 11 10 9 8 8 8 8 8 8 8 8 9 9 8 8 6 6 7 9 8 7 7 8

GFSNW_con_lsi_069.txt.gz
Lid_Strength_Index
1 1 1 2 2 3 4 7 8 5 5 9 10 12 12 10 10 8 9 10 11 12 12 13 13 13 11 8 9 11 9 10 13 12 8 8 10 10 10 12 14 12 12 12
1 1 1 2 2 3 4 9 9 5 6 12 13 11 11 10 10 10 10 10 10 10 11 13 12 11 8 7 8 10 8 11 14 13 10 8 10 11 11 12 11 12 14 12
1 1 1 2 2 3 5 8 10 9 9 10 12 13 12 12 9 9 9 10 9 10 11 9 11 11 9 8 7 6 7 10 12 14 12 10 12 12 12 12 13 12 11 10
1 1 1 2 3 4 6 9 11 11 12 11 11 11 12 13 12 10 9 10 9 10 12 11 11 9 9 8 6 7 8 12 11 11 11 11 12 12 12 13 12 12 10 10
2 2 2 2 3 5 7 9 9 9 10 10 11 11 13 12 11 10 10 10 9 8 11 10 11 9 9 9 7 9 8 11 10 12 11 10 11 11 11 12 12 12 11 10
2 2 2 2 3 5 6 6 6 8 10 11 11 11 11 11 10 8 7 8 9 9 8 6 6 6 6 7 8 9 10 10 12 14 11 11 13 10 10 11 9 9 12 9
2 2 2 2 3 3 4 5 6 9 12 10 11 10 9 10 9 9 7 6 8 6 4 4 5 6 7 7 7 6 10 11 11 13 12 16 11 8 7 9 9 9 9 9
2 2 2 2 2 3 3 4 5 8 11 10 9 10 9 9 8 8 7 6 5 5 6 9 11 10 10 9 8 8 7 10 12 14 14 11 11 11 11 12 11 9 10 10
2 2 2 2 2 2 3 3 3 6 10 10 8 9 9 11 9 8 8 5 4 6 7 11 15 16 13 14 11 8 8 8 12 12 16 17 14 10 9 9 14 9 10 10
2 2 2 2 2 2 3 4 3 5 8 7 7 9 10 8 8 9 8 7 8 6 10 13 14 15 12 15 15 14 13 13 14 14 14 12 10 10 9 16 14 11 10 10
2 2 2 2 2 2 3 4 3 5 6 6 6 6 8 7 8 10 7 7 8 9 11 12 13 14 13 13 12 13 13 14 14 13 15 16 9 10 13 12 10 10 10 10
2 2 2 2 1 1 2 4 2 2 5 6 4 4 4 5 5 6 7 8 8 7 10 10 11 13 12 13 15 10 14 12 14 12 12 8 8 9 9 9 10 10 10 9
2 2 2 1 1 1 2 3 3 3 5 6 6 5 4 3 4 2 7 6 6 7 6 8 9 12 11 14 13 12 10 9 11 11 9 8 8 8 8 8 10 9 9 9
2 2 1 1 1 1 2 3 3 3 5 7 6 4 4 4 3 3 3 4 3 5 7 8 9 11 9 11 11 12 11 10 11 11 9 9 8 8 7 8 8 8 7 7
2 2 1 1 1 2 2 3 3 3 5 7 6 5 4 5 4 5 5 5 6 5 7 9 10 9 11 9 9 11 10 11 13 13 10 9 9 7 7 9 9 9 9 9
2 1 1 1 2 2 2 5 3 3 3 6 8 4 5 5 5 5 6 5 6 6 6 8 9 8 9 11 12 9 8 7 9 10 8 9 8 7 8 9 9 8 8 8
2 2 1 1 2 2 4 5 4 4 4 6 8 7 4 4 5 5 5 6 7 6 6 7 7 8 9 10 13 9 8 8 8 8 8 10 9 10 8 9 9 8 6 7
2 2 3 2 2 3 4 3 3 3 5 6 9 9 7 4 7 7 7 8 7 6 6 6 7 6 8 12 9 8 7 8 9 9 8 9 8 9 10 10 9 9 9 9
2 2 3 2 3 4 4 3 2 3 5 8 8 10 11 4 6 7 7 8 9 6 8 7 7 9 13 8 8 8 7 8 9 8 8 8 10 9 10 11 11 11 11 9
2 3 4 5 4 3 2 4 6 6 6 7 9 6 9 6 7 8 8 7 9 11 8 6 9 10 6 5 5 5 7 7 7 9 10 9 9 10 10 11 10 10 10 10
3 4 4 4 3 4 5 7 8 7 9 7 7 7 8 4 9 9 7 9 9 12 10 10 10 11 7 4 4 4 5 5 6 7 7 8 8 9 9 10 10 10 10 10
3 3 3 4 6 6 8 8 7 8 9 7 7 7 6 6 5 8 7 10 9 13 7 9 13 8 5 5 4 4 4 4 4 5 7 8 7 8 9 9 9 9 9 8
2 3 5 6 6 10 10 11 9 8 6 6 6 7 6 6 5 8 9 11 11 7 10 13 9 6 5 4 4 4 4 4 3 4 4 6 7 7 7 8 9 9 9 8
5 7 12 9 9 9 8 7 7 5 6 6 6 6 8 6 8 8 10 9 8 11 14 12 7 5 5 4 4 4 5 4 4 3 4 4 5 6 7 7 6 7 8 9
6 6 11 9 6 6 6 7 7 6 6 7 6 6 6 7 8 8 9 10 13 11 11 7 6 5 4 4 4 4 4 4 4 4 3 4 4 4 5 6 6 6 6 7
5 6 8 6 7 6 8 7 7 7 7 8 7 8 9 10 9 10 12 11 12 9 6 5 4 4 4 3 3 4 3 3 4 5 5 4 4 4 4 3 4 5 6 7
6 7 5 5 6 6 6 7 7 8 8 8 8 11 11 8 11 11 9 9 7 5 4 4 4 4 3 4 4 4 3 4 4 4 4 5 4 4 5 5 4 4 4 5

GFSNW_con_lsi_072.txt.gz
Lid_Strength_Index
1 1 1 1 2 3 3 3 5 2 2 5 6 9 9 10 8 7 8 8 9 10 10 10 10 11 10 7 8 9 8 9 11 9 7 6 7 8 8 11 12 10 11 10
1 1 2 2 3 3 3 5 5 3 3 8 9 8 9 8 8 8 9 9 8 8 9 11 10 10 8 7 8 9 7 10 12 10 8 7 8 8 8 8 8 11 13 11
1 2 2 2 3 4 4 5 7 5 5 6 8 9 9 10 8 9 8 9 8 8 9 7 9 9 8 7 7 7 7 10 11 12 10 8 10 9 8 9 11 11 10 9
2 2 2 2 3 4 4 5 7 7 9 8 8 8 10 11 10 8 8 8 8 8 10 9 9 8 7 6 6 6 7 10 9 9 9 9 10 10 9 10 9 11 9 9
1 2 2 2 3 4 3 5 5 6 8 8 8 9 10 11 10 9 9 9 8 8 10 9 10 8 8 8 6 6 6 10 10 11 9 9 11 9 9 9 9 9 9 9
2 2 2 2 3 3 4 4 4 5 9 8 9 9 9 10 9 7 6 7 7 8 7 5 5 5 5 6 7 7 8 9 10 12 9 10 12 9 9 8 7 8 10 7
2 2 2 2 2 3 2 3 3 6 10 7 8 8 8 9 8 8 6 6 7 6 4 4 4 5 5 5 6 5 8 9 10 11 10 15 9 7 8 8 7 6 7 6
2 2 2 2 2 3 2 2 4 5 8 7 7 8 8 8 7 7 7 6 4 4 5 8 9 9 9 8 6 6 6 9 11 12 12 10 9 10 10 12 9 7 7 6
2 2 2 2 2 3 2 2 2 3 6 7 6 8 8 9 9 8 7 4 3 4 6 9 14 14 12 13 10 6 6 7 12 11 13 14 12 9 8 8 15 7 7 7
2 2 2 2 2 2 1 1 -0 2 6 4 5 8 9 7 8 8 7 5 5 4 8 11 13 13 12 16 15 13 12 12 14 13 13 10 8 7 8 16 13 7 7 7
2 2 1 1 1 2 1 2 -1 2 4 4 4 5 6 6 6 9 7 6 6 7 10 11 11 13 12 13 12 13 13 14 14 12 14 15 7 7 12 9 8 7 7 7
1 1 1 1 1 1 1 2 -0 -1 3 3 2 2 2 4 4 7 5 6 7 6 9 9 10 12 11 12 15 10 13 11 12 11 10 7 6 7 5 7 8 8 8 7
2 1 1 1 1 1 1 1 1 2 4 3 3 4 2 2 2 1 6 5 4 6 4 7 8 12 10 13 13 12 10 10 11 10 8 7 7 5 6 6 7 7 7 7
1 1 1 1 1 1 1 0 1 1 2 6 5 1 2 2 1 2 2 3 3 3 3 7 8 10 7 10 10 11 9 9 10 10 8 7 7 6 7 6 6 7 6 7
1 1 1 1 1 2 1 -1 0 0 3 6 5 2 1 2 2 2 2 2 4 5 6 7 10 8 9 8 8 11 10 11 11 12 8 8 8 6 6 7 6 6 7 7
2 1 1 1 1 2 1 3 0 0 1 4 7 2 3 3 2 2 3 3 4 4 5 6 6 6 8 10 11 8 7 7 9 10 7 7 7 6 7 7 7 7 6 7
2 2 1 1 1 1 3 4 2 2 0 4 7 6 3 2 4 3 4 3 4 4 4 5 6 6 6 9 11 8 7 7 8 7 8 9 8 9 7 7 7 6 5 6
2 2 2 2 2 2 2 1 3 2 3 3 8 7 6 2 6 7 6 6 5 5 5 4 5 5 6 11 7 7 6 7 7 8 8 8 8 8 9 8 7 7 7 6
1 2 2 1 2 3 3 2 2 2 4 7 7 9 9 3 6 6 7 6 9 4 7 5 5 8 12 7 6 6 6 6 7 7 7 8 9 9 10 10 9 9 8 8
1 1 2 5 3 2 2 3 4 5 4 5 8 4 7 5 7 8 8 7 9 11 7 4 7 10 5 4 4 4 4 4 6 7 8 9 10 10 10 10 9 10 10 9
0 3 3 1 2 3 4 7 7 6 8 6 6 5 7 3 8 8 6 9 8 12 9 8 8 10 6 4 4 3 3 3 3 4 6 6 7 8 10 10 10 10 10 10
1 1 0 1 5 6 7 7 6 8 8 6 6 5 5 4 4 7 7 10 9 12 6 9 13 7 4 3 3 3 2 3 3 3 3 5 6 6 7 9 10 10 10 10
-0 2 5 6 5 11 10 12 8 8 5 5 5 6 5 6 5 7 8 10 10 6 9 13 8 5 4 3 3 3 2 2 3 3 3 3 4 5 6 7 7 8 9 10
4 6 12 8 8 7 7 7 6 5 5 5 5 5 7 6 8 6 10 7 6 9 14 11 6 5 4 3 2 3 3 3 3 3 3 3 3 4 5 6 6 7 8 8
5 5 11 7 5 4 4 4 4 5 5 6 6 5 6 7 8 6 7 10 11 10 9 6 5 4 3 3 3 3 3 3 3 3 3 4 3 4 3 4 5 6 6 7
4 5 7 5 6 6 5 4 5 5 5 5 5 7 9 9 8 9 10 10 11 7 5 4 3 3 3 2 2 2 2 2 2 2 3 3 3 4 4 3 3 4 5 6
6 6 3 4 5 5 5 4 5 4 6 7 7 11 11 7 9 9 6 9 7 5 3 3 3 3 3 2 2 2 1 1 2 2 2 2 3 3 4 4 3 3 4 5

GFSNW_con_lsi_075.txt.gz
Lid_Strength_Index
1 1 1 2 3 3 2 2 5 1 0 5 4 7 6 9 7 6 6 7 7 8 8 8 8 8 7 6 7 8 6 8 10 8 6 5 6 7 7 11 12 9 10 10
1 1 2 2 3 3 3 3 3 1 1 7 7 6 7 6 7 7 7 8 7 7 8 9 8 7 6 6 7 8 6 9 11 10 8 6 8 7 7 7 8 10 12 10
1 1 2 3 3 3 3 3 6 3 3 4 6 7 8 8 6 7 7 7 7 7 7 6 8 8 6 5 6 6 6 8 10 11 9 8 9 8 7 8 10 10 10 9
1 1 2 2 3 3 2 3 5 5 7 6 6 6 7 8 8 7 7 8 7 8 9 8 8 7 6 5 4 5 6 10 8 8 8 8 8 9 8 9 9 11 9 8
1 2 2 2 2 3 1 4 4 4 5 5 6 8 7 8 8 8 9 8 7 6 8 8 9 7 7 7 6 8 6 10 9 10 8 8 9 8 8 9 8 9 8 9
2 2 2 2 2 3 2 2 2 3 7 6 6 7 7 8 7 7 6 6 6 7 7 6 5 5 4 5 6 7 8 10 11 13 9 9 11 9 8 7 7 8 10 7
2 2 2 2 2 3 1 2 2 5 7 6 7 7 8 8 8 7 6 5 6 5 3 4 4 4 5 5 5 5 7 9 11 14 10 16 8 6 6 7 7 6 6 7
1 2 2 2 2 2 0 -1 2 3 7 5 6 7 7 7 7 6 6 5 3 2 4 7 8 8 9 8 6 6 5 7 12 14 13 10 9 9 9 10 8 7 6 5
1 1 1 1 2 1 -0 -0 -1 2 5 6 5 6 6 8 7 6 6 3 2 3 6 8 13 14 11 12 10 6 6 6 9 11 15 15 11 8 6 7 11 7 6 7
1 1 1 1 2 1 -0 0 -1 2 4 4 4 6 6 5 6 7 5 5 5 4 8 11 12 13 11 15 14 12 11 11 12 12 13 10 7 6 6 14 12 6 6 6
1 1 1 1 1 1 -0 -0 -2 2 3 3 3 3 5 6 5 7 5 6 5 7 9 10 10 11 10 13 12 12 12 13 14 12 14 14 6 6 10 8 6 5 5 6
1 1 1 1 1 1 1 0 -2 -2 2 3 1 1 1 2 2 3 4 6 6 6 9 8 8 10 9 11 15 9 13 12 13 11 10 6 5 6 4 4 5 5 5 5
1 1 1 1 1 1 1 0 -1 -0 3 3 3 3 1 0 1 -0 6 4 4 4 3 6 8 12 7 12 11 10 9 7 11 10 6 6 6 4 4 5 5 5 5 5
1 1 1 1 1 1 1 0 -1 1 2 6 5 0 2 0 -0 1 0 2 2 2 4 6 8 10 7 10 9 11 9 9 10 10 7 7 6 5 5 5 4 4 4 4
1 1 1 1 1 1 1 -1 -2 -1 3 6 5 2 1 0 0 1 1 2 3 3 6 6 7 5 6 6 8 11 9 11 11 12 9 9 8 5 4 5 5 5 6 5
1 1 1 1 0 1 1 3 -1 -2 -0 4 7 2 2 1 1 2 3 2 2 4 6 5 3 4 6 10 10 8 7 7 7 9 7 7 6 6 5 5 5 5 6 5
2 1 1 1 1 0 3 4 1 1 -0 4 6 7 3 2 2 3 4 3 3 4 5 6 4 5 5 7 11 6 6 7 6 6 6 8 8 8 6 6 6 5 5 4
1 1 2 1 1 2 2 0 3 2 2 3 8 6 6 2 6 7 5 6 5 5 5 5 6 5 5 10 6 5 5 6 6 6 6 7 7 7 8 7 7 7 7 5
1 1 1 1 2 3 2 2 2 -0 2 7 7 9 8 3 6 5 6 6 9 5 6 6 5 7 12 7 6 5 4 5 5 6 6 7 8 9 9 9 9 9 8 7
1 1 3 5 2 2 2 2 4 4 4 4 8 4 7 4 6 8 7 7 9 11 8 4 7 9 5 4 3 3 4 3 4 6 7 7 8 9 10 10 9 9 9 8
0 3 4 2 2 2 3 7 7 6 8 6 6 5 6 3 7 8 6 9 8 11 8 7 8 9 6 3 3 2 2 3 3 4 4 5 6 7 8 8 8 9 9 9
1 1 -0 1 4 5 7 7 6 7 8 7 7 6 5 3 3 7 7 10 8 12 5 7 13 7 4 4 3 3 2 2 2 3 4 4 4 6 6 7 7 8 8 8
-0 2 5 6 6 11 9 10 8 10 8 6 7 8 5 4 4 7 8 11 12 6 9 13 8 5 4 3 3 2 2 2 2 3 3 3 4 3 5 6 6 7 7 7
4 6 12 8 8 7 9 9 7 5 5 5 6 7 7 7 7 7 11 8 6 9 13 11 7 5 3 3 2 2 3 2 2 2 2 3 3 4 3 4 5 6 6 6
5 4 12 7 6 6 5 5 6 4 3 5 6 6 7 8 9 7 7 8 11 10 9 6 5 3 3 3 2 2 2 2 2 2 2 2 3 4 4 3 4 5 5 6
4 5 6 5 6 6 5 5 5 2 2 4 4 7 8 8 7 9 9 10 11 9 6 5 3 3 3 3 2 2 2 2 2 2 2 2 2 3 3 3 3 3 4 5
5 6 5 6 5 6 6 4 4 2 4 6 5 9 9 5 8 9 7 9 7 5 4 3 3 3 2 2 2 2 2 2 2 1 1 2 2 2 2 3 3 3 3 4

GFSNW_con_lsi_078.txt.gz
Lid_Strength_Index
1 1 1 2 3 4 2 2 6 1 -0 5 4 7 6 9 6 5 6 6 7 8 7 8 8 8 7 6 6 9 7 9 10 9 7 6 7 8 8 12 13 10 11 10
1 1 2 2 3 3 3 4 3 0 1 8 7 6 6 6 6 6 6 7 6 6 8 9 8 7 6 6 7 8 7 9 12 10 8 7 8 9 8 8 8 12 12 11
1 1 2 2 3 2 2 4 6 4 3 3 6 7 7 7 6 6 6 6 6 7 8 6 8 8 6 5 5 5 6 9 10 13 10 8 9 8 8 8 11 10 10 9
1 1 2 2 2 3 2 3 5 4 7 6 5 5 6 7 8 6 5 7 7 7 9 8 8 7 7 6 5 6 6 10 9 9 9 9 9 8 8 10 9 11 10 9
1 1 1 2 2 3 2 5 5 4 5 5 6 7 7 8 7 7 8 8 7 6 8 7 8 8 7 7 6 6 6 10 9 11 9 9 10 8 8 8 9 9 9 10
1 1 1 1 2 3 2 1 1 3 6 5 6 7 7 8 6 6 6 6 6 7 6 5 5 5 5 6 6 7 7 11 11 13 9 10 12 9 8 8 8 9 11 9
1 1 1 1 1 2 0 1 2 4 7 6 7 6 6 7 6 7 5 5 6 5 3 3 4 4 5 5 6 5 7 8 11 13 11 18 9 6 6 7 7 8 9 8
1 1 1 1 1 1 0 0 2 4 7 5 6 6 7 6 5 6 6 5 4 2 4 7 9 9 9 8 6 6 6 8 12 15 13 12 10 9 9 10 8 7 8 7
1 1 0 0 0 0 -0 0 -0 2 5 6 5 6 6 7 6 6 5 3 2 3 6 8 13 13 12 12 9 7 7 7 10 11 15 16 12 7 6 6 12 7 7 7
1 0 0 0 0 -0 0 0 -1 2 5 4 4 6 6 5 6 7 5 5 5 4 8 10 12 13 11 15 14 12 12 13 14 13 13 10 8 7 5 13 12 6 6 6
1 0 0 0 0 0 0 0 -1 2 4 3 3 3 5 4 5 7 5 6 6 7 10 10 11 12 11 13 11 12 12 14 14 12 14 15 6 6 10 8 5 5 5 5
1 0 0 0 0 1 1 1 -1 -1 3 3 1 1 1 2 2 4 4 6 6 5 8 9 8 10 9 10 14 8 13 11 13 12 12 7 6 7 6 4 5 5 5 4
1 1 1 1 1 1 1 1 -0 1 3 4 3 4 1 -0 0 0 5 4 4 5 4 6 8 11 8 12 11 10 8 7 10 10 7 7 6 5 5 5 5 4 4 4
1 1 0 0 0 1 1 1 -0 1 3 6 5 0 2 -0 0 1 1 2 2 2 3 6 7 10 6 9 9 10 8 8 9 9 7 8 6 6 5 5 4 4 4 4
1 1 1 0 0 0 1 -1 -1 -1 3 7 5 2 1 0 1 1 1 2 3 4 6 7 8 5 6 6 7 10 8 10 11 11 8 9 9 7 5 5 5 5 5 5
1 1 1 1 0 1 0 3 -0 -0 -0 5 7 2 3 1 1 2 2 3 3 4 5 6 5 4 6 9 11 7 6 6 7 9 7 7 7 6 6 7 6 5 4 4
1 1 1 1 1 1 2 4 1 2 -0 5 7 7 3 2 2 3 3 2 3 4 5 6 6 6 5 8 11 6 5 5 5 6 5 7 7 8 7 7 7 5 4 3
1 1 1 0 1 2 2 0 2 1 2 3 8 7 6 2 6 7 3 5 5 5 6 5 7 6 6 11 6 5 5 5 5 5 5 5 6 6 7 7 7 7 7 6
1 1 1 0 2 3 2 1 2 1 2 7 7 9 9 3 5 5 6 6 9 5 8 7 6 8 12 8 6 5 4 5 5 5 4 6 6 7 7 8 8 9 8 7
1 1 2 5 2 2 1 2 4 4 4 5 8 5 9 6 7 8 8 7 9 11 8 5 8 10 5 5 4 3 4 3 3 5 6 5 6 6 7 8 8 8 8 8
2 3 4 1 2 2 4 7 7 7 8 6 7 6 9 5 9 9 7 9 8 12 9 9 10 10 6 4 4 3 3 3 3 3 3 3 4 6 6 7 8 8 8 8
2 1 -0 0 3 6 8 8 8 9 10 7 7 7 6 5 5 8 8 10 9 13 7 9 13 8 5 4 4 3 3 3 3 2 3 3 3 3 5 6 7 7 7 7
-0 3 5 6 6 12 11 13 10 10 7 6 6 7 5 6 6 8 8 11 12 7 10 14 9 6 4 3 3 3 2 2 3 3 2 2 2 2 4 5 5 6 6 7
4 6 12 8 9 10 9 9 9 6 5 5 5 7 7 5 7 8 11 9 9 11 13 11 8 5 4 3 3 3 3 3 3 3 2 2 3 2 3 3 4 5 6 6
5 5 11 10 7 7 6 5 6 4 3 4 6 6 5 7 8 7 7 9 11 10 12 10 6 4 3 3 3 3 3 3 3 2 2 2 2 2 2 2 3 4 5 5
4 5 7 5 7 7 5 5 5 3 3 4 4 7 8 8 7 9 10 10 12 9 6 5 5 4 3 3 2 2 2 2 3 3 2 2 2 2 2 2 2 3 3 5
5 8 5 6 5 5 5 4 4 2 4 6 5 9 9 6 9 10 8 9 7 5 4 4 3 3 3 2 2 2 2 2 3 3 2 2 1 2 2 3 2 1 2 2

GFSNW_con_lsi_081.txt.gz
Lid_Strength_Index
1 1 1 2 3 3 3 3 8 2 2 7 7 9 8 8 6 6 7 6 8 9 9 10 10 11 9 7 8 10 10 12 14 11 8 9 10 12 11 14 15 13 15 13
1 1 1 2 3 3 5 6 5 2 3 9 9 7 7 6 7 7 7 8 7 7 9 11 9 8 7 7 8 10 10 13 16 13 12 10 12 11 11 11 13 14 16 14
1 1 1 2 2 3 4 5 8 5 4 5 7 8 8 8 6 7 6 7 7 8 9 9 10 9 7 7 7 5 8 13 15 17 13 11 12 12 12 12 14 14 13 11
1 1 1 2 2 3 3 5 6 5 9 7 7 7 7 8 8 6 6 7 8 9 11 10 10 8 8 6 5 7 9 14 13 12 10 10 11 11 10 13 12 14 13 11
0 1 1 1 2 3 2 6 6 5 6 6 7 7 8 8 7 7 8 8 8 8 10 9 10 9 9 10 8 9 9 13 12 12 9 9 11 10 10 10 11 12 12 10
1 0 1 1 1 2 3 2 2 5 6 7 8 8 8 8 7 6 6 7 8 8 7 6 7 7 7 8 10 10 11 13 14 16 10 10 13 11 10 10 9 9 13 10
0 0 -0 0 0 2 2 2 3 6 8 7 8 7 6 7 7 8 6 6 8 5 4 4 5 6 7 7 8 9 11 11 13 16 14 19 11 9 8 9 9 9 9 8
0 -0 -0 -0 -0 1 1 1 3 6 8 6 6 6 7 6 6 7 6 6 5 5 6 9 11 10 11 9 8 8 8 11 14 16 16 12 10 9 10 11 11 8 9 8
0 -0 -1 -0 -0 1 1 1 0 4 7 8 5 6 6 8 8 7 6 4 4 5 7 10 15 16 13 13 11 8 8 9 13 14 17 18 12 8 6 7 14 7 7 8
1 -0 -1 -1 -0 0 1 1 -0 3 7 4 4 7 7 5 7 8 7 6 6 5 9 13 15 15 12 15 15 14 13 13 16 15 16 13 9 7 6 13 14 8 7 7
1 0 -0 -1 -1 -0 1 1 -1 2 5 4 3 3 5 5 6 9 7 7 7 8 11 12 13 14 13 13 12 12 13 15 16 14 16 17 7 8 12 9 7 6 7 7
1 0 -0 -0 -0 0 2 2 -1 -1 4 4 1 1 1 2 2 5 5 7 7 7 9 10 11 13 11 12 15 9 14 12 14 13 13 8 7 8 6 6 7 7 8 7
1 1 -0 -0 -0 -0 1 2 1 1 4 4 4 4 2 1 1 1 7 6 5 6 5 7 9 13 10 14 14 11 10 8 12 11 9 8 8 7 7 6 7 7 7 7
1 1 0 -0 -0 -0 1 2 1 1 3 7 6 1 2 0 1 1 2 3 3 4 5 7 9 11 8 11 10 12 10 10 11 11 9 9 8 8 7 7 6 6 6 6
1 1 1 0 -0 0 1 0 -0 -0 4 8 6 3 2 2 2 2 2 3 4 5 7 8 10 7 8 8 9 11 8 10 11 12 10 9 9 7 7 7 7 6 7 7
1 1 0 0 1 1 1 4 1 0 0 5 9 3 3 2 2 3 3 3 4 5 6 7 6 5 8 11 11 8 7 6 6 8 6 7 7 7 6 7 7 7 7 6
1 1 0 0 0 1 3 4 2 2 0 5 8 8 4 3 3 4 4 4 5 5 6 8 7 7 7 10 13 8 6 6 5 5 5 7 6 8 7 7 7 7 7 6
2 1 1 1 1 2 3 0 1 1 2 4 9 9 7 3 6 7 4 6 6 6 7 7 8 7 8 12 8 7 6 5 5 5 4 5 4 6 6 6 7 8 8 7
2 1 1 2 3 3 2 1 1 2 3 8 8 10 11 4 6 6 6 6 9 6 8 8 7 10 12 9 7 7 5 6 6 5 5 5 5 5 6 6 7 9 9 7
2 2 4 5 2 1 2 4 6 6 5 5 9 6 9 6 7 8 9 9 9 11 9 6 10 11 7 6 5 5 5 4 4 6 7 6 6 5 6 6 7 8 8 7
3 4 5 3 1 2 4 7 8 7 9 7 7 7 9 5 9 9 8 11 9 13 11 10 11 12 8 5 5 4 4 4 4 4 4 4 4 5 5 6 6 7 7 8
3 3 1 1 4 6 8 9 8 9 10 7 8 7 6 6 5 9 8 10 10 13 8 11 14 9 6 5 4 4 4 3 3 3 3 3 3 3 4 5 6 6 7 7
0 3 5 6 7 12 11 13 11 10 7 7 6 8 6 6 6 8 9 11 12 7 11 13 10 7 5 5 4 4 3 3 3 3 3 2 3 2 3 4 5 5 6 6
5 7 12 9 10 9 9 9 9 7 7 6 6 7 8 6 8 8 11 9 9 12 14 13 10 7 5 5 4 4 4 4 4 3 3 3 3 3 3 3 3 5 6 6
6 6 12 9 7 7 6 6 6 5 5 6 6 6 7 8 9 8 10 11 12 12 12 10 7 6 5 5 4 4 4 4 4 3 3 3 3 3 3 3 2 4 5 6
5 5 8 7 8 8 6 6 6 4 4 4 5 7 8 9 10 10 12 11 13 10 8 6 6 5 5 4 4 4 3 4 3 3 3 3 3 3 3 3 3 2 4 5
6 7 5 6 7 7 5 5 5 3 5 7 7 9 9 7 10 11 9 10 8 7 6 5 5 5 4 4 4 3 3 3 3 3 3 3 3 3 3 4 3 2 2 3

GFSNW_con_lsi_087.txt.gz
Lid_Strength_Index
1 1 1 1 2 4 5 7 9 4 6 10 12 13 11 8 9 8 9 10 11 12 12 13 13 13 11 8 10 12 13 15 16 15 12 10 12 15 16 18 18 17 16 17
1 0 1 1 2 4 7 8 8 5 6 12 13 10 9 8 9 9 9 10 10 11 13 14 12 11 9 8 11 14 12 16 18 17 14 13 14 13 16 16 18 19 18 16
1 0 1 1 2 3 6 9 11 8 8 11 11 12 11 10 7 8 9 10 10 11 13 13 13 12 9 8 8 6 10 17 17 19 17 14 14 13 13 16 18 18 17 16
1 0 0 1 2 3 6 8 10 9 11 10 11 10 10 10 10 8 9 10 10 12 14 14 13 12 11 10 8 10 13 16 16 15 13 12 13 13 13 15 16 18 15 14
0 0 0 0 1 3 6 8 9 9 11 10 10 11 11 10 9 9 11 11 9 10 13 12 14 13 13 14 11 12 12 15 15 16 12 13 14 11 11 11 12 13 12 13
0 -0 -0 0 1 3 6 6 7 8 9 11 12 12 11 9 9 8 8 9 11 11 10 9 10 10 11 12 13 14 14 15 16 18 14 14 16 13 12 11 11 11 15 11
0 -0 -0 -0 1 2 5 6 6 9 11 10 10 8 8 9 9 10 8 8 11 9 8 8 9 9 10 10 11 12 13 14 15 17 16 19 15 9 9 11 10 10 10 9
1 0 -1 -1 0 1 4 5 6 9 11 9 8 8 8 9 9 9 8 7 7 7 8 11 13 12 12 11 11 11 12 14 16 17 18 15 12 10 11 12 12 9 10 9
1 0 -0 -1 -0 1 4 4 5 7 10 10 6 8 9 11 11 9 8 7 8 8 11 12 16 17 14 14 13 12 11 12 13 16 17 18 13 9 8 8 15 8 8 8
1 0 -0 -1 -1 0 5 4 4 6 9 8 8 9 9 9 10 11 10 8 9 9 13 16 17 17 13 18 17 16 17 16 16 17 17 14 10 9 8 15 14 8 8 8
1 1 0 -0 -0 0 4 4 4 5 8 7 6 5 7 8 9 11 9 9 10 11 13 14 16 17 14 18 16 15 16 18 19 17 16 18 9 9 13 11 10 9 9 8
1 1 1 -0 -0 -0 2 5 4 3 6 6 4 4 4 5 6 8 10 10 10 11 12 13 14 16 15 16 18 12 16 14 16 14 15 11 10 11 9 10 11 10 10 9
1 1 1 0 0 -0 2 5 5 5 7 6 6 5 4 6 6 5 9 9 8 9 9 11 12 14 14 17 16 14 12 11 15 13 12 10 9 9 9 9 10 9 9 8
1 1 1 0 0 0 1 6 5 5 6 9 8 4 6 5 6 5 5 7 7 8 9 11 12 14 11 14 13 14 12 11 13 14 11 11 9 8 8 7 8 8 8 8
1 1 1 0 0 1 4 5 5 4 6 9 8 5 4 5 6 6 6 7 8 9 10 11 12 11 11 13 12 16 11 13 14 14 11 11 11 8 7 7 7 7 8 8
2 1 1 1 1 2 4 6 4 4 5 8 11 7 5 5 5 6 7 6 7 8 9 10 9 9 11 14 15 12 11 10 10 11 10 10 9 8 7 7 6 6 6 6
2 2 2 2 2 5 6 6 4 3 4 6 10 10 6 5 6 5 5 5 6 7 8 10 10 10 10 13 14 11 10 9 9 10 9 9 8 8 7 6 6 5 4 5
2 2 2 2 3 4 6 5 3 4 5 6 9 9 8 5 7 8 5 7 7 6 7 7 9 9 9 12 10 10 9 9 9 8 8 7 8 8 7 6 6 6 5 5
3 2 3 5 6 7 5 1 2 3 4 8 8 11 12 6 7 6 6 6 9 7 10 9 8 10 12 9 9 9 8 8 7 6 6 6 7 6 6 6 6 7 5 5
3 5 6 8 6 1 2 5 6 6 5 5 9 8 10 7 8 8 8 10 12 12 10 7 10 11 7 6 6 7 7 6 5 7 8 7 7 6 6 6 6 6 6 5
6 6 7 5 2 5 6 8 8 8 10 10 9 9 9 5 9 9 8 11 10 13 11 11 11 12 8 6 6 6 6 6 6 5 6 6 6 6 6 6 5 5 6 5
5 5 4 5 7 8 8 10 9 9 11 9 9 8 7 6 6 8 10 10 10 13 8 11 13 11 8 7 5 5 6 5 4 4 5 5 4 5 5 5 5 6 5 4
5 6 5 7 8 12 13 15 12 11 9 7 8 9 8 8 8 8 9 12 12 9 13 13 11 9 7 6 5 5 4 4 5 5 4 3 4 4 4 5 5 5 5 5
7 8 12 10 12 10 10 10 9 7 8 8 8 9 9 9 10 9 13 10 10 13 16 13 11 9 7 6 5 5 5 5 4 4 4 4 4 4 4 4 4 4 5 5
7 7 12 10 8 8 8 7 7 6 7 7 9 9 9 10 11 10 10 12 14 13 13 11 9 8 7 7 6 6 5 5 5 5 5 4 3 4 4 4 4 4 4 5
6 7 9 8 9 8 8 7 8 6 7 7 9 10 11 11 10 12 13 13 14 11 10 8 8 8 7 7 6 6 5 5 5 5 5 4 4 4 4 4 3 4 4 4
7 8 7 7 8 8 7 8 8 8 8 10 10 11 12 10 11 12 10 12 10 7 6 7 8 8 8 7 6 5 4 4 4 4 4 4 4 4 4 5 4 4 4 3

GFSNW_con_lsi_093.txt.gz
Lid_Strength_Index
4 2 1 1 2 3 3 4 6 3 4 6 8 9 9 9 8 7 8 8 10 11 11 11 11 11 9 7 8 10 9 10 12 12 10 10 10 11 12 12 13 11 11 15
4 2 1 1 2 3 2 4 5 2 3 8 8 7 8 7 8 9 9 9 9 10 11 11 10 10 8 7 7 10 9 11 12 12 10 10 11 11 11 12 11 13 13 15
3 2 1 1 2 3 3 4 7 4 5 7 7 8 8 8 6 8 7 8 8 9 10 9 11 10 9 8 7 6 8 11 12 12 12 11 12 12 11 11 11 12 11 13
3 2 1 1 2 2 3 5 7 7 8 7 7 7 8 8 9 7 6 7 8 9 10 10 10 10 9 8 8 8 9 12 11 11 11 11 12 12 12 11 11 11 12 13
3 2 0 1 2 3 3 5 6 6 7 8 7 8 8 8 8 8 8 8 8 8 9 9 10 9 9 9 8 9 9 11 11 12 11 11 11 10 10 10 10 11 11 13
4 2 0 0 1 2 3 3 4 4 8 8 8 8 8 8 7 7 7 7 7 8 8 7 7 7 7 7 8 9 9 10 11 13 12 11 13 10 10 10 10 10 12 10
3 2 -0 -0 1 2 1 2 4 5 8 7 7 7 7 7 7 8 7 7 7 7 5 5 5 6 6 6 7 8 9 10 10 13 12 16 11 8 8 10 9 8 8 8
3 2 -0 -0 0 1 1 2 3 5 8 6 7 7 7 6 6 7 7 6 6 4 6 8 10 9 9 8 8 8 8 9 12 13 13 13 10 9 10 10 11 8 8 7
3 2 0 -0 0 1 1 2 3 3 7 7 5 6 6 7 7 7 6 5 5 5 6 8 12 13 12 12 10 8 8 7 10 12 14 15 11 8 6 7 12 7 7 7
3 2 0 -0 0 1 1 1 2 3 6 4 4 6 7 6 7 7 6 6 6 5 7 10 12 13 11 15 13 12 11 11 12 12 13 11 8 7 6 13 11 6 6 7
3 2 0 0 0 0 1 2 1 2 5 4 4 4 5 6 5 8 6 6 6 7 9 10 11 12 11 12 11 11 11 13 13 13 14 14 6 7 10 8 6 6 7 7
3 2 1 0 0 0 2 2 2 1 3 4 3 3 3 3 4 4 6 6 6 6 8 8 9 11 11 11 14 9 13 10 12 11 10 7 6 7 5 5 6 6 6 7
3 2 1 1 0 0 2 2 2 2 4 4 3 4 2 2 3 3 5 6 5 6 5 7 8 11 9 13 12 10 8 8 9 9 7 7 6 5 5 5 6 6 6 6
3 2 1 1 1 1 2 2 2 2 3 7 5 2 3 2 3 4 3 4 5 5 4 6 8 9 8 10 9 10 8 7 9 9 7 7 6 5 4 5 5 6 6 5
4 2 1 1 1 2 2 2 2 2 3 7 6 3 3 2 3 4 4 4 5 6 7 7 8 7 9 9 9 10 8 9 10 10 6 6 6 5 4 5 5 5 5 6
3 2 2 2 2 3 2 4 2 1 2 5 8 3 3 3 3 4 4 4 5 6 6 8 6 7 8 10 11 8 7 6 5 7 6 6 6 6 5 5 5 5 5 5
3 3 3 3 3 3 4 4 2 2 2 5 7 7 3 2 3 3 4 3 5 5 7 8 8 8 7 9 12 8 8 6 6 6 6 7 7 6 5 5 5 5 4 4
3 3 3 3 4 3 3 2 2 1 2 3 8 8 6 3 6 7 4 6 5 6 7 7 8 7 8 12 7 6 6 6 7 7 6 5 5 5 5 4 4 4 4 3
3 3 2 3 3 3 3 0 1 0 2 7 7 9 10 3 6 5 5 5 9 6 8 8 8 10 12 9 8 7 6 6 5 5 5 5 5 4 4 4 4 4 4 3
3 3 3 5 3 1 2 2 3 4 4 4 8 5 8 5 6 8 7 6 9 11 8 6 9 9 6 5 5 5 4 4 4 5 6 5 5 4 4 4 3 3 3 3
3 4 4 2 2 3 4 7 7 6 8 6 6 6 7 4 8 9 6 9 9 12 9 10 11 11 7 5 5 4 3 3 4 3 3 3 3 3 4 4 3 3 3 3
4 3 2 2 3 5 8 9 8 8 9 7 7 6 6 6 4 7 7 10 9 12 7 10 13 8 5 5 4 4 3 3 3 3 3 3 3 3 3 3 3 3 2 2
3 3 5 6 6 11 11 12 10 9 7 6 7 8 6 6 5 7 8 10 10 7 10 12 9 6 5 5 4 4 3 3 3 3 3 3 3 2 2 3 2 2 2 2
5 7 12 9 10 9 8 8 8 6 6 6 6 7 7 6 8 7 11 8 9 12 13 11 7 6 5 4 3 3 4 3 3 3 3 3 3 3 2 2 2 2 2 2
6 6 12 10 7 6 5 5 5 5 4 5 6 7 6 7 9 8 9 11 12 11 10 7 6 5 4 4 4 3 3 3 3 3 3 3 3 3 3 2 2 2 2 2
5 6 8 7 8 7 6 6 6 4 5 4 5 8 9 9 8 10 11 11 12 9 7 5 4 5 4 4 3 3 3 3 3 3 3 2 3 3 3 2 2 2 2 2
6 7 5 6 6 6 5 5 5 4 5 7 6 9 9 7 10 10 8 10 7 6 5 4 4 4 4 3 3 3 3 3 2 2 2 2 2 2 3 3 2 2 1 1

GFSNW_con_lsi_096.txt.gz
Lid_Strength_Index
4 3 3 1 2 3 3 2 5 0 0 4 4 7 7 8 6 5 6 6 7 8 8 8 8 8 7 6 6 8 7 7 9 9 8 7 8 8 8 10 11 9 10 16
3 3 3 2 2 2 1 3 3 0 1 6 7 5 6 6 7 6 7 7 6 6 8 9 8 8 6 5 6 7 6 7 11 10 8 8 8 8 8 7 8 10 11 15
3 3 3 2 2 2 1 3 5 3 3 3 5 6 7 7 5 6 6 7 6 7 8 6 8 8 8 6 7 6 6 7 9 11 10 8 9 9 8 8 10 9 10 14
3 2 3 2 2 2 1 3 5 4 6 6 5 5 6 7 8 5 5 6 7 7 8 8 8 7 7 7 7 6 6 9 8 8 9 9 10 10 10 9 8 10 10 13
3 2 3 1 1 3 1 4 4 2 5 5 5 6 7 7 7 6 7 7 6 6 8 7 8 7 6 7 6 6 6 9 8 10 9 9 10 9 9 9 8 9 11 13
3 3 2 1 1 2 2 1 1 3 7 6 5 6 6 7 6 6 5 6 6 7 6 5 4 4 5 5 6 8 7 8 9 10 10 10 11 8 8 8 8 8 12 10
3 3 2 0 1 2 0 1 2 4 6 4 5 6 6 6 6 7 6 5 6 5 3 3 4 4 5 5 5 5 8 7 8 9 9 13 9 6 6 8 8 7 8 8
3 3 2 0 0 1 0 -0 2 3 5 5 6 6 6 5 5 6 6 5 3 2 4 6 8 8 8 7 6 6 5 7 9 11 11 10 9 8 8 8 9 6 7 7
3 3 2 -0 0 1 -1 0 -0 2 4 5 5 6 5 5 6 6 5 3 2 3 5 6 11 10 10 10 9 6 6 6 9 10 12 13 8 6 5 6 10 6 5 6
4 3 2 -0 -0 1 -0 0 -1 2 4 3 4 5 5 4 5 5 5 5 5 3 6 8 10 10 10 15 12 11 9 9 11 10 11 9 7 6 5 11 10 5 5 5
4 3 2 0 0 0 -0 0 -1 2 3 3 3 3 4 4 4 6 5 5 5 6 8 8 9 11 10 12 10 10 11 11 12 11 12 13 5 6 9 7 5 4 4 5
4 3 2 0 0 0 1 0 -2 -1 2 3 1 1 1 2 2 3 4 5 6 4 6 6 6 9 8 10 12 7 11 8 10 9 8 6 4 5 4 4 4 4 4 5
4 2 2 0 0 1 1 -0 -0 0 2 3 2 3 1 -0 1 1 5 3 4 4 3 4 5 9 7 11 10 9 7 6 8 8 6 6 5 4 3 4 4 4 4 4
3 3 2 1 1 1 2 -0 -0 1 2 5 5 0 2 0 0 1 1 2 3 3 3 5 6 8 5 8 7 8 6 6 7 7 6 5 4 4 3 3 4 4 4 4
3 3 1 1 1 2 -0 -1 -1 -1 3 6 5 2 1 0 1 1 1 2 3 4 5 6 8 5 6 5 6 8 6 7 9 9 5 5 5 3 3 3 3 3 4 4
4 2 2 2 2 3 0 3 -1 -2 -0 4 7 2 3 2 1 2 2 3 4 5 7 8 6 5 6 10 10 6 5 4 4 6 4 4 4 4 3 3 3 3 3 3
3 2 3 3 3 1 2 4 1 1 -1 4 6 6 3 2 2 3 3 3 4 5 6 8 7 7 7 10 12 7 6 5 4 4 4 5 4 5 4 4 4 4 4 3
2 3 3 3 3 3 1 -0 0 -0 1 2 6 6 6 2 4 6 3 5 4 5 7 6 8 7 8 11 8 6 5 5 5 4 4 4 3 4 4 3 3 4 4 4
2 2 2 0 1 2 1 0 0 -2 2 5 5 7 9 2 4 4 4 4 8 4 8 7 7 9 12 8 7 6 6 6 5 4 3 4 4 4 3 3 3 4 4 3
2 1 2 4 1 2 1 1 3 3 2 2 5 4 7 4 5 5 6 4 8 10 7 5 8 9 5 4 4 4 5 4 3 5 5 4 4 4 3 3 3 3 2 2
1 3 3 1 1 1 2 6 6 5 7 5 4 5 6 3 7 7 4 8 7 11 9 9 9 9 6 4 4 3 3 3 3 2 3 3 3 3 3 3 2 2 2 2
2 1 -0 0 3 4 7 7 7 7 8 5 5 6 4 4 2 6 5 9 7 11 5 9 12 6 4 4 4 3 3 3 3 2 2 2 2 2 2 2 2 2 2 1
-0 2 5 5 5 11 10 10 8 7 6 5 6 7 4 5 4 5 6 10 10 5 10 12 8 5 3 3 3 3 2 3 2 2 2 2 2 2 2 2 1 1 2 1
4 6 12 8 9 7 6 6 5 5 3 5 5 6 6 5 7 6 10 8 7 11 12 10 6 5 4 3 3 3 3 3 2 2 2 2 2 2 1 1 1 2 2 2
5 6 12 9 5 4 4 4 4 4 2 4 5 5 5 6 8 6 7 10 11 9 9 6 4 3 3 3 3 3 2 2 2 2 2 2 2 2 2 1 1 1 1 1
4 5 7 5 6 6 5 4 4 3 3 3 4 6 8 7 6 9 10 9 10 7 4 3 3 4 3 2 2 2 1 2 3 2 2 2 2 2 2 1 1 1 1 2
6 6 4 5 5 4 4 3 3 2 4 5 4 9 9 5 8 9 6 8 6 4 3 2 2 3 3 3 2 2 1 2 2 2 2 2 1 1 2 2 2 2 1 1

GFSNW_con_lsi_102.txt.gz
Lid_Strength_Index
5 4 3 3 3 4 3 2 6 1 -0 5 5 8 6 7 5 4 5 7 8 7 7 8 9 9 7 6 6 8 6 8 10 9 6 5 6 7 7 11 12 10 15 16
5 4 3 3 3 3 1 4 4 0 1 7 6 5 6 5 6 6 6 6 6 6 7 9 8 7 6 5 6 8 7 8 11 10 8 6 8 7 7 7 8 11 15 16
4 4 2 3 3 2 1 4 6 3 3 3 5 6 6 7 5 5 5 6 5 6 7 6 8 7 6 5 5 5 6 8 9 13 10 8 9 8 7 8 10 10 14 14
4 4 2 3 3 2 1 3 5 4 6 5 5 5 6 7 7 5 5 6 6 6 8 8 8 6 6 5 6 5 6 10 8 8 8 8 8 8 8 8 8 11 13 13
4 3 3 2 3 3 2 4 5 3 4 5 5 6 6 7 6 6 7 6 6 6 7 8 9 7 6 7 5 6 6 9 8 9 8 9 9 8 8 8 8 10 10 12
4 2 3 2 3 3 2 2 1 3 7 5 6 6 6 6 5 5 5 5 6 6 6 5 4 4 4 5 6 7 7 8 9 11 8 9 11 9 8 7 7 7 12 10
4 2 2 2 2 2 1 1 2 5 6 5 6 5 5 6 5 6 5 4 5 4 3 3 4 4 5 5 5 5 7 8 8 11 9 13 8 6 6 7 6 6 8 8
4 2 2 2 1 2 0 0 2 4 6 5 5 5 5 5 4 5 5 4 3 2 4 6 8 8 7 6 6 6 5 7 9 11 11 9 8 7 7 7 7 6 8 7
3 2 2 2 1 0 1 0 0 3 5 5 4 5 5 6 6 5 5 3 2 3 5 7 10 11 10 9 8 5 5 6 9 9 12 13 10 6 5 5 10 5 6 7
3 3 3 2 -0 -0 1 1 -1 2 5 3 3 5 5 4 5 6 5 4 4 3 6 8 9 10 8 14 11 10 8 8 10 10 11 9 6 5 5 10 10 5 5 6
4 4 2 1 -1 -0 1 1 -1 2 4 3 2 2 4 4 4 6 5 5 5 5 8 8 9 10 9 11 9 9 10 10 11 9 11 12 5 6 8 7 4 4 4 6
4 4 2 0 -1 -0 1 2 -1 -1 3 3 1 1 1 2 2 4 4 5 5 5 7 7 8 10 9 9 12 6 10 8 10 9 10 5 4 5 4 4 4 4 4 4
4 4 2 1 -0 -0 0 1 -0 1 3 3 3 3 1 -0 1 0 5 3 3 4 3 6 7 10 7 10 10 8 6 5 8 8 6 6 5 4 4 3 4 3 3 4
4 3 2 1 0 0 1 1 -0 1 2 5 5 1 2 0 0 1 1 2 2 2 3 5 6 8 5 8 7 8 6 6 7 7 6 5 4 4 3 3 3 3 2 2
3 3 2 1 1 1 1 -1 -1 -1 3 6 5 2 1 1 1 1 1 2 3 4 5 6 8 6 7 6 6 8 6 6 9 9 5 5 5 3 3 3 3 3 3 3
3 2 2 1 1 2 1 3 -0 -1 0 4 6 2 3 1 1 2 3 3 4 4 6 6 5 5 7 10 10 6 5 4 4 6 4 4 3 3 2 3 3 2 2 2
3 2 2 2 2 1 2 4 2 2 -0 4 7 6 3 2 2 2 3 2 4 4 5 6 6 7 6 8 11 6 5 4 4 3 4 5 3 4 2 2 2 2 2 2
2 3 2 2 2 3 2 -0 0 1 2 3 8 7 5 2 5 5 3 5 4 4 5 5 7 6 7 11 7 5 4 4 4 4 3 3 3 3 3 3 3 3 3 3
2 2 2 1 2 2 2 0 -0 -1 2 7 6 8 9 3 4 4 4 4 8 4 7 7 6 8 12 8 6 6 4 5 5 4 4 3 4 4 3 3 4 4 4 4
2 1 2 4 2 2 1 2 3 3 3 3 6 4 7 4 5 5 6 5 7 10 7 5 7 9 5 4 4 3 4 4 3 5 5 4 4 4 4 4 3 3 3 3
1 3 4 1 1 1 2 5 6 4 6 4 4 4 6 3 6 7 6 7 7 11 8 8 9 9 6 4 4 3 3 3 3 3 3 3 4 4 4 4 3 3 2 3
2 2 -0 0 3 4 7 7 5 6 8 5 5 6 4 4 3 5 5 8 7 11 5 9 11 7 5 4 3 3 3 3 3 3 3 3 3 3 3 3 3 3 2 2
-0 2 5 5 5 11 10 10 8 8 5 5 5 6 5 4 4 5 6 9 9 5 8 12 9 5 4 3 3 3 2 2 2 2 2 2 2 2 2 3 2 2 2 2
4 7 12 8 9 8 7 6 6 4 4 4 4 5 6 4 7 6 9 7 6 10 12 11 7 5 4 3 2 3 3 3 3 3 2 2 2 3 2 2 2 2 3 4
5 6 12 8 6 5 4 3 3 3 2 3 5 5 5 6 7 6 7 9 10 9 10 7 5 4 3 3 3 3 3 3 3 2 2 2 2 2 2 1 1 1 2 3
4 5 7 6 6 6 4 4 4 3 3 3 4 6 7 8 7 8 9 10 10 8 6 5 4 4 3 3 2 2 2 2 2 2 2 2 2 2 2 1 1 1 2 3
5 6 4 5 5 5 5 4 3 2 4 6 6 8 8 6 9 9 7 9 7 5 5 4 4 3 3 2 2 2 2 2 2 2 2 2 1 2 2 3 2 1 1 1

GFSNW_con_lsi_105.txt.gz
Lid_Strength_Index
4 4 4 4 3 3 2 4 7 2 2 7 6 9 7 7 6 5 6 7 7 9 8 9 11 9 9 7 8 10 9 11 13 11 9 9 10 12 12 14 15 14 16 18
4 4 5 4 4 4 3 5 5 2 3 10 8 7 7 6 6 6 6 7 7 7 9 10 9 8 6 7 8 11 10 12 15 13 11 10 11 11 12 12 13 13 15 17
4 4 4 3 3 3 4 5 8 5 4 5 7 8 7 8 5 6 6 6 6 7 9 8 9 8 7 7 8 4 6 12 12 16 13 10 11 10 10 12 15 15 16 15
4 4 4 3 2 3 3 5 7 5 8 7 6 7 7 7 8 6 5 6 7 8 10 10 10 8 8 7 5 7 9 12 11 11 9 9 10 10 9 12 12 14 14 14
4 4 3 3 2 4 3 6 6 5 7 6 7 7 8 7 7 7 7 7 6 7 10 9 10 8 9 9 7 9 8 12 11 12 10 10 11 10 9 10 11 12 12 13
4 4 2 3 2 3 3 3 2 5 7 6 7 7 7 7 6 5 5 6 7 8 7 7 7 7 7 7 9 9 10 11 12 14 10 11 14 11 10 10 10 11 14 11
4 3 2 2 2 2 2 2 3 6 9 7 7 6 6 7 6 6 5 5 7 5 5 6 8 8 7 7 9 8 10 11 11 14 12 17 12 8 8 9 9 9 10 9
4 3 2 2 2 2 2 1 3 6 9 6 6 6 6 5 6 6 5 5 4 4 6 8 10 11 11 8 8 9 8 10 13 15 14 12 9 8 9 10 11 8 9 8
4 3 2 2 2 1 2 1 1 4 8 7 4 5 4 7 7 7 6 4 4 5 7 9 13 14 12 12 9 8 8 8 11 13 16 16 11 7 6 7 15 8 7 8
4 3 3 2 1 -0 1 1 0 3 7 4 4 6 7 5 6 7 6 6 6 6 9 11 14 15 10 15 13 13 12 11 13 13 15 12 8 6 6 12 13 7 7 7
3 4 3 2 -0 -0 2 2 -0 3 5 4 3 3 5 5 6 8 6 7 7 8 10 11 12 14 12 14 12 12 13 14 14 13 15 16 6 7 12 9 7 7 7 7
3 4 3 1 -0 -0 2 2 -0 -0 4 4 1 2 1 2 3 5 5 7 7 7 9 9 10 12 11 12 16 9 13 11 13 12 13 8 6 7 6 6 6 6 6 6
4 3 3 1 0 0 0 1 1 1 4 4 4 4 2 1 2 1 6 5 5 6 5 7 9 11 10 14 13 11 9 7 11 11 8 8 6 5 5 5 5 5 4 5
4 3 3 1 0 1 1 1 0 1 3 7 5 1 2 1 1 1 2 3 3 4 5 7 8 10 8 11 10 11 9 9 10 10 8 7 6 5 5 5 4 4 5 5
3 3 2 1 1 2 2 1 -0 -0 4 7 6 3 2 1 1 2 2 3 4 5 7 8 10 8 9 8 9 10 8 10 11 12 8 8 7 6 4 5 5 4 4 4
3 2 2 2 1 2 1 4 0 0 1 5 8 3 3 2 2 3 3 3 4 5 7 8 7 5 8 11 12 8 6 6 6 8 6 6 5 4 3 4 4 4 5 4
3 2 2 2 2 3 3 4 2 2 0 5 7 8 3 2 2 3 4 3 4 5 6 8 7 7 7 10 13 8 6 6 5 5 5 7 5 6 4 3 3 3 3 4
2 2 2 2 3 3 2 -0 1 2 3 4 8 8 6 3 6 7 4 6 5 6 7 6 8 7 8 11 8 7 6 5 5 5 4 5 5 4 4 3 3 4 4 4
2 2 2 2 3 3 2 -1 1 -1 3 7 7 10 11 3 5 5 5 5 9 5 8 8 7 10 11 9 8 7 6 6 6 5 5 4 5 5 4 4 4 5 5 5
2 3 3 5 2 1 0 1 4 4 4 5 7 5 8 5 6 7 7 6 9 11 9 6 9 11 7 6 5 5 5 5 5 7 6 5 5 5 5 4 4 4 4 3
2 4 4 1 -0 1 4 6 7 7 7 6 6 5 7 4 8 8 6 9 8 12 10 10 11 11 8 5 5 4 4 4 4 4 4 4 5 5 5 4 4 4 3 4
4 4 1 1 3 5 7 8 7 7 9 6 7 6 6 5 4 7 7 9 9 12 7 10 13 9 6 5 4 4 4 4 4 3 4 4 3 3 4 4 4 4 3 3
0 3 5 6 6 11 11 11 10 9 7 6 6 7 6 5 5 7 8 10 11 6 10 13 10 7 6 5 4 4 3 3 3 3 3 3 2 3 3 4 3 3 3 3
5 7 12 9 10 9 8 8 7 5 5 6 6 7 7 6 7 7 10 8 8 11 14 12 9 7 6 5 4 4 4 3 3 3 3 3 3 3 3 3 3 3 3 3
6 6 12 9 7 6 5 5 5 4 3 5 6 6 6 8 8 8 8 10 12 11 12 9 7 6 5 5 4 4 4 4 4 3 3 3 3 3 3 3 3 3 3 3
5 5 8 6 7 7 6 5 5 4 4 4 5 7 8 8 8 10 10 11 12 10 8 6 6 6 5 5 4 4 3 3 3 3 3 3 3 3 3 3 3 3 3 3
5 7 4 5 6 6 5 4 5 3 5 7 6 9 9 7 9 9 8 9 8 7 6 5 5 5 5 4 4 4 3 3 3 3 3 3 3 3 3 4 3 3 2 2

GFSNW_con_lsi_108.txt.gz
Lid_Strength_Index
3 4 4 5 5 4 4 6 10 4 4 9 11 12 8 7 8 7 7 7 9 9 9 11 12 11 9 6 9 11 11 13 15 13 9 9 11 12 13 15 16 16 17 17
2 4 4 5 5 4 7 8 8 3 6 12 12 9 8 8 8 8 8 8 8 7 9 12 10 8 6 6 9 12 11 14 16 14 13 10 13 12 13 14 15 16 19 17
3 3 4 4 4 3 7 7 9 8 8 9 9 11 10 10 7 7 8 8 8 8 10 9 10 8 7 7 9 3 7 14 14 16 14 12 13 12 13 14 15 16 16 15
3 3 4 4 3 3 6 6 8 8 10 9 10 10 9 9 10 7 7 9 8 10 12 11 11 8 9 8 5 8 10 13 13 11 11 11 11 12 12 12 12 14 15 14
3 3 4 3 3 4 5 7 8 6 9 10 9 10 11 9 9 8 9 9 8 8 11 11 12 10 11 11 9 10 11 12 11 12 10 11 12 11 10 11 12 13 13 13
3 3 3 2 3 4 5 4 5 6 8 8 10 10 10 8 8 7 7 7 9 9 9 8 8 7 9 9 10 11 11 12 13 14 12 12 15 12 12 11 11 12 15 12
3 3 3 2 2 3 5 4 5 7 10 9 9 7 7 8 9 8 7 7 9 8 7 8 9 10 9 10 11 10 12 12 11 14 12 17 12 10 10 9 10 10 10 9
3 3 2 2 2 2 5 3 4 7 10 7 7 7 7 8 9 8 7 7 7 7 9 11 13 13 12 10 10 12 11 12 14 15 15 13 10 9 10 12 13 9 10 9
3 3 3 2 2 2 4 4 3 5 8 8 6 7 7 10 10 10 8 7 7 7 10 12 15 15 13 13 10 10 10 11 12 14 16 16 11 8 8 8 15 8 8 8
3 4 3 2 2 1 4 5 3 5 8 6 7 8 8 7 9 10 9 8 8 9 12 13 15 15 11 15 15 14 13 13 14 14 15 13 8 7 6 13 13 8 7 7
3 3 3 2 1 0 4 5 3 6 7 6 5 5 6 7 9 10 8 9 8 9 12 12 13 14 13 13 12 13 13 15 15 14 16 17 7 7 11 9 7 7 8 9
3 3 3 1 1 0 2 4 2 3 6 6 4 4 3 4 6 7 8 8 9 8 10 11 11 13 12 13 15 10 14 11 13 12 13 9 8 8 7 7 8 8 8 8
3 3 2 1 0 1 2 5 3 4 6 6 6 6 4 3 4 4 8 8 6 7 6 8 10 12 10 14 13 12 9 9 11 11 9 9 7 7 6 6 6 6 7 7
4 3 2 1 1 1 1 4 3 4 6 8 7 3 4 3 2 2 4 6 5 6 7 9 11 11 8 11 10 11 9 9 11 11 9 8 7 7 6 6 5 5 5 5
4 3 2 1 1 2 3 5 3 3 5 8 8 5 4 3 3 3 4 5 6 7 8 10 11 9 9 9 9 11 9 10 11 12 8 8 7 6 5 6 6 6 6 6
3 3 2 2 2 2 4 5 3 4 4 7 9 5 5 4 4 4 5 5 6 7 8 9 9 8 9 12 13 8 8 7 7 8 7 6 6 5 4 6 5 5 6 6
3 3 3 2 2 5 5 6 4 5 4 6 9 9 6 4 5 5 6 5 6 7 8 9 9 10 9 11 13 8 8 6 6 6 7 7 6 7 5 5 4 4 5 5
3 3 3 2 3 3 4 3 3 4 4 6 9 9 8 5 8 8 6 7 7 7 8 8 9 9 10 12 9 8 7 6 6 6 6 6 6 6 5 5 5 5 6 6
2 2 3 4 5 5 4 1 1 4 4 8 8 11 12 6 8 7 7 7 10 8 9 9 9 11 13 11 9 8 7 7 6 6 6 6 6 6 6 6 5 6 6 5
3 4 4 6 4 0 1 3 5 5 5 6 9 7 9 7 8 9 9 9 11 14 10 8 10 11 8 9 8 7 6 5 5 7 8 7 7 6 6 6 5 5 5 4
4 4 6 3 0 3 5 8 9 8 10 8 8 8 8 6 9 10 9 11 11 14 11 11 13 13 9 6 6 6 5 5 4 5 5 5 5 5 5 5 4 4 3 4
6 6 5 3 5 7 10 10 8 9 10 8 8 8 8 8 7 10 9 12 11 14 9 10 15 11 8 6 5 5 5 4 4 4 4 4 4 5 5 5 4 4 3 4
4 5 7 7 7 12 12 13 11 11 8 7 7 9 8 8 9 11 11 12 13 9 12 15 12 10 7 7 7 6 5 4 4 4 4 4 4 3 4 4 4 4 4 3
6 8 12 10 11 10 10 9 9 6 7 7 8 8 8 8 10 10 12 11 11 13 15 13 10 9 7 6 6 6 6 5 5 5 4 3 4 4 4 4 4 4 4 4
7 7 12 10 8 7 6 6 7 7 5 6 7 8 8 9 10 10 10 12 13 12 13 11 9 8 7 7 7 7 6 6 7 7 6 5 5 5 5 4 5 4 3 5
6 7 9 7 8 8 7 7 6 8 6 7 7 9 9 10 10 11 12 12 13 12 10 9 7 7 6 7 7 7 7 7 7 6 6 5 5 6 5 4 4 4 4 4
7 8 6 7 8 8 7 6 6 7 8 10 9 11 10 8 11 11 10 11 10 9 8 6 6 6 6 6 6 7 6 7 7 7 6 6 5 5 5 5 5 4 4 4

GFSNW_con_lsi_111.txt.gz
Lid_Strength_Index
2 3 3 4 5 6 6 8 10 5 4 8 11 12 9 7 9 7 8 8 9 10 10 12 12 12 9 7 9 12 12 14 15 13 10 10 12 13 14 15 16 16 17 17
2 2 3 4 5 5 7 9 10 5 6 11 12 11 9 9 9 9 9 9 8 9 11 12 11 9 6 7 9 12 12 15 16 14 12 12 13 13 14 15 14 17 18 17
2 3 3 3 5 4 7 9 10 9 9 10 11 11 11 10 7 8 9 9 9 10 11 10 11 9 7 7 9 4 8 14 14 16 15 14 14 12 13 15 15 16 16 15
2 3 3 4 4 5 7 7 8 9 11 10 11 11 10 10 10 8 9 9 8 10 12 11 11 9 9 8 6 9 11 14 14 12 12 12 13 13 12 14 13 14 14 14
1 3 3 3 3 4 5 8 8 8 10 10 11 11 12 10 9 9 10 10 9 10 11 11 12 10 11 11 10 11 12 14 13 13 11 12 13 12 12 12 12 13 12 13
1 3 3 3 3 4 5 5 6 7 8 9 11 11 10 9 9 7 7 8 10 10 10 9 9 9 10 10 11 11 11 14 14 16 11 12 15 13 13 11 11 12 14 11
1 3 3 3 3 3 7 5 6 8 10 10 10 9 8 9 9 9 8 7 9 9 9 9 10 12 10 11 11 11 12 13 14 15 13 18 12 10 9 11 11 10 10 10
1 3 3 2 2 3 6 5 6 8 10 8 7 7 8 8 9 8 8 8 7 9 9 12 14 14 13 12 12 13 12 13 15 15 16 12 10 10 11 12 13 9 10 9
1 3 3 3 3 3 6 6 5 6 9 9 6 7 8 10 11 10 8 7 8 9 11 12 15 15 14 13 12 12 12 13 14 15 16 17 12 8 7 8 15 9 8 9
2 3 3 3 2 2 5 5 4 6 8 7 8 9 9 8 10 10 10 8 8 10 13 14 15 15 11 16 14 15 14 14 15 15 16 13 8 7 6 14 13 8 7 8
2 3 3 3 2 1 4 4 4 6 8 7 5 5 7 7 10 11 9 9 9 10 12 13 13 15 13 14 13 14 14 16 16 15 16 17 7 7 10 9 10 8 7 7
2 3 3 2 1 2 2 5 3 4 7 6 5 5 5 5 6 8 9 9 9 8 11 11 12 13 12 13 16 11 14 12 13 13 13 10 8 8 7 7 8 7 8 8
3 3 3 2 1 1 3 5 5 5 7 6 6 6 4 3 4 5 8 8 7 8 7 10 10 12 11 14 13 13 10 10 11 11 10 9 8 8 7 8 8 8 8 7
3 3 2 1 1 1 3 6 5 5 6 9 8 4 5 2 3 3 5 6 6 7 8 11 11 12 9 11 11 12 9 10 12 12 10 9 8 8 7 6 7 7 7 6
3 3 2 2 1 2 4 5 5 5 6 9 8 6 5 5 4 4 5 6 7 8 9 10 11 10 10 11 11 12 10 10 11 12 9 10 9 7 7 6 6 6 6 7
4 3 3 2 2 2 4 6 4 5 5 7 10 7 6 5 4 5 5 6 7 8 9 10 10 9 10 12 13 9 8 7 8 8 7 8 7 6 5 7 7 6 6 5
4 3 3 2 3 5 5 6 4 5 4 7 10 9 6 5 6 6 6 6 7 8 10 10 10 10 10 12 15 9 9 7 7 6 7 8 6 7 6 5 5 5 6 6
4 3 3 3 3 4 4 3 3 5 5 7 10 10 8 6 8 8 7 8 8 9 10 10 10 10 11 14 10 9 8 7 6 7 6 7 7 6 6 6 6 6 7 7
3 2 3 4 5 5 4 0 3 4 5 8 9 11 12 7 9 9 9 9 11 10 11 11 10 12 14 12 10 9 8 7 7 7 6 6 7 7 6 6 6 7 7 7
3 4 4 6 4 0 1 3 5 6 6 6 9 9 10 8 10 10 10 11 13 15 12 10 12 13 10 9 10 8 7 6 6 8 9 8 8 6 6 6 5 6 5 4
5 5 6 3 1 4 6 8 9 8 10 9 8 9 9 7 10 11 10 12 13 15 13 12 15 14 11 8 9 9 7 6 6 6 6 6 6 6 6 5 5 5 5 4
7 7 6 5 5 8 10 10 9 9 10 8 9 9 8 9 9 10 11 12 12 15 11 12 16 12 10 8 7 7 7 6 6 5 6 5 4 5 5 5 5 4 3 3
5 5 7 7 7 12 12 13 12 11 9 8 8 9 8 9 10 11 12 13 14 11 13 15 13 11 9 8 7 6 6 6 5 5 5 4 4 4 5 5 4 4 4 4
6 8 12 10 11 10 10 9 8 7 8 8 9 9 9 9 10 11 13 11 12 14 16 14 11 10 8 7 7 7 6 6 6 6 5 5 5 5 4 4 4 4 5 4
7 8 12 10 7 7 6 6 7 8 7 7 8 9 9 10 10 10 11 12 13 13 14 12 10 9 8 8 8 8 7 8 9 8 7 6 5 5 5 5 5 4 4 4
6 7 9 8 9 8 8 7 7 8 8 8 8 9 10 11 10 12 12 12 13 12 11 10 8 8 8 8 8 8 8 9 9 8 6 6 6 6 6 5 5 5 5 5
7 8 6 7 8 8 7 7 7 8 8 9 9 10 11 9 11 12 11 12 11 9 8 7 7 7 7 7 6 7 8 9 8 8 8 7 6 6 6 7 6 5 5 4

GFSNW_con_lsi_114.txt.gz
Lid_Strength_Index
2 2 3 3 4 5 7 10 9 6 5 9 12 12 10 8 9 7 9 9 10 11 11 12 12 12 10 8 9 12 12 13 15 13 11 11 12 13 14 15 16 16 17 17
2 2 3 3 4 5 7 9 9 5 7 11 12 11 9 9 9 10 9 9 9 10 11 13 11 10 7 7 10 13 12 14 15 14 13 12 13 13 15 15 13 17 17 17
2 2 3 4 4 5 7 9 11 10 10 11 12 11 11 11 8 9 9 9 9 10 11 11 12 10 8 8 9 5 8 14 14 16 15 14 14 13 14 15 15 16 15 15
1 2 3 4 4 5 7 8 10 10 11 10 12 11 12 10 11 9 8 10 9 11 12 12 12 10 10 9 6 10 11 14 13 12 12 12 13 13 13 14 14 14 14 14
1 2 3 3 4 4 7 9 9 9 10 10 12 13 12 11 10 9 10 10 10 10 12 11 12 11 12 12 10 11 12 14 13 13 10 11 13 13 12 12 13 13 13 15
1 1 3 3 3 5 7 6 7 8 9 12 12 12 11 9 9 8 8 9 10 11 11 10 10 10 11 12 11 11 12 12 14 16 12 11 14 14 13 11 11 12 15 12
1 1 3 3 3 4 7 6 6 9 11 11 10 10 9 10 10 9 8 8 10 9 9 10 11 12 11 11 12 11 12 13 13 16 13 18 12 10 10 12 11 10 10 10
2 2 2 3 3 3 8 6 7 8 11 9 8 8 9 9 9 9 8 8 8 10 9 12 14 14 13 12 13 13 12 13 15 15 15 14 11 10 10 11 12 9 10 9
2 2 2 3 3 3 7 6 5 7 10 9 7 8 8 10 11 10 9 7 8 10 12 12 15 16 15 14 13 13 13 13 13 15 16 17 12 8 6 8 13 9 8 9
2 2 3 3 3 3 6 5 5 6 9 8 8 9 9 9 10 11 10 9 8 11 14 14 16 16 12 16 15 15 15 14 15 15 16 13 9 7 6 13 13 8 7 7
3 3 3 3 3 1 4 5 4 6 8 8 6 6 8 8 10 11 10 10 9 11 12 13 14 15 13 15 13 14 14 15 16 16 16 16 8 7 11 9 7 7 7 7
3 3 4 3 2 1 2 5 3 4 7 7 6 5 5 6 7 9 9 10 10 9 11 12 12 13 13 14 16 12 14 13 13 13 13 10 9 8 7 7 7 7 7 7
3 3 3 2 1 2 3 5 5 6 7 6 6 6 4 4 4 6 8 9 8 9 8 10 11 12 12 14 13 13 11 11 12 11 10 9 8 8 7 7 7 6 7 6
3 3 3 2 2 1 3 5 5 5 7 9 8 4 5 3 4 4 6 7 7 8 9 11 12 12 10 12 12 12 10 10 12 12 10 9 8 8 7 6 6 7 6 6
3 3 3 2 2 2 5 6 6 5 6 9 9 7 5 5 5 5 5 6 8 9 9 10 11 11 11 11 11 12 10 10 11 12 9 10 9 7 6 6 5 5 6 7
3 4 3 2 2 2 4 6 4 5 5 8 10 7 7 6 6 6 7 7 8 9 9 11 10 10 10 13 13 10 9 8 8 9 8 8 7 6 6 7 6 5 5 4
5 4 3 3 3 5 5 6 4 5 5 8 10 9 7 6 6 7 8 8 9 9 11 11 11 11 11 13 15 9 8 7 7 6 6 7 6 7 6 6 5 5 6 5
5 4 3 3 3 4 4 4 4 4 6 7 10 10 9 7 9 9 9 10 10 11 11 11 12 12 13 14 10 9 8 7 7 6 7 7 6 6 5 5 5 6 7 7
4 3 3 4 5 5 4 1 3 4 5 8 10 11 12 7 10 10 10 10 12 11 12 12 12 13 16 13 12 10 8 7 7 6 7 6 7 7 6 6 6 6 6 6
4 4 5 6 4 1 1 4 7 6 6 7 9 9 10 9 10 11 11 12 14 16 13 11 13 14 11 11 11 9 8 7 6 7 8 7 7 6 6 6 5 5 5 5
5 6 6 4 2 4 6 8 8 8 11 9 8 9 9 8 10 11 11 13 13 16 14 13 16 15 11 9 9 10 8 7 7 7 7 7 6 6 6 5 4 4 4 4
7 6 5 5 6 8 10 10 9 10 11 9 9 9 9 9 9 10 11 13 13 15 11 13 16 13 10 9 8 9 9 7 6 6 6 6 6 5 5 5 5 4 4 3
6 5 7 7 8 12 12 13 12 11 9 9 9 9 9 10 10 11 12 13 14 11 13 16 13 11 10 9 8 7 8 7 6 5 5 5 5 4 4 5 5 4 4 4
6 8 12 10 12 10 10 10 9 8 8 9 9 10 9 10 11 11 13 12 12 15 17 14 12 11 9 8 7 7 7 6 6 6 5 5 5 4 4 4 4 4 4 4
7 7 12 10 8 7 7 7 8 8 8 8 9 9 9 11 11 11 12 13 14 14 14 13 11 10 9 8 8 7 7 7 8 7 7 5 5 5 6 5 5 4 4 4
7 7 10 8 9 9 8 7 8 8 9 9 9 10 10 11 10 12 12 13 14 12 11 10 8 9 8 8 8 7 8 9 8 8 7 6 6 6 7 6 5 5 4 5
7 8 7 7 8 8 8 7 6 8 9 10 9 11 11 10 12 12 11 12 11 11 9 7 8 7 8 8 7 8 8 8 8 9 9 8 7 7 7 6 5 5 5 4

GFSNW_con_lsi_117.txt.gz
Lid_Strength_Index
3 2 2 3 4 5 6 6 6 3 3 6 7 7 8 8 7 6 6 6 7 8 8 9 9 9 8 6 7 8 8 8 10 10 7 8 8 9 9 11 13 12 13 13
3 2 2 3 4 5 5 6 5 2 3 8 7 7 7 7 7 8 7 8 7 7 8 10 9 8 6 6 7 8 7 9 11 11 9 8 9 9 9 9 10 13 13 12
3 2 2 4 4 5 4 4 7 5 6 7 8 7 8 8 6 7 6 7 6 7 8 7 9 8 7 7 6 5 5 9 10 11 11 9 10 10 10 9 11 12 11 12
2 2 2 3 4 5 4 5 7 6 7 7 8 8 8 8 8 6 6 7 7 8 9 9 9 7 7 7 6 7 6 10 9 9 9 9 10 10 10 10 9 11 10 11
2 2 2 3 4 5 3 5 6 5 6 7 8 9 8 8 8 6 7 7 8 6 8 8 9 8 7 8 6 7 7 10 9 11 9 9 10 10 9 10 10 10 10 11
2 2 2 3 4 5 3 3 4 4 8 8 8 8 7 7 6 6 5 6 6 7 7 7 7 6 7 7 7 8 8 9 10 12 10 10 11 9 9 10 10 10 12 10
2 2 2 2 3 4 4 3 3 5 7 6 7 8 7 8 7 7 6 5 6 5 5 6 7 7 7 7 8 7 8 9 9 11 11 15 9 7 8 9 10 9 9 8
2 2 2 2 3 3 4 3 3 5 7 6 6 7 7 6 5 6 6 5 5 6 6 6 8 8 8 8 8 8 7 8 11 12 12 11 9 8 8 9 9 7 9 8
2 2 3 2 3 3 4 3 2 4 6 7 6 6 6 7 6 6 6 4 4 5 6 7 11 11 10 10 9 8 8 7 9 11 13 14 10 7 5 7 11 7 7 8
2 3 3 3 3 3 3 2 2 3 6 4 5 6 6 6 6 6 6 5 5 6 7 9 10 11 10 13 11 10 9 9 10 11 12 10 7 6 5 12 10 7 7 7
2 3 3 3 3 2 2 1 0 2 5 4 3 4 5 5 5 7 6 6 6 6 9 9 10 11 10 11 10 10 10 11 11 11 12 13 6 7 9 8 6 6 6 6
2 3 3 3 2 1 2 2 0 1 3 4 3 2 2 3 3 4 5 6 7 6 8 8 9 11 10 11 13 8 12 8 9 9 9 7 6 6 5 5 6 6 6 5
2 3 3 2 2 1 2 1 2 2 3 4 3 4 1 1 2 2 5 4 4 5 4 7 8 10 8 12 11 10 8 7 9 9 8 7 6 5 4 4 5 5 4 4
2 3 3 2 2 2 2 2 2 2 3 6 5 2 2 2 1 2 3 3 4 4 4 6 7 8 7 9 9 9 7 7 9 9 7 6 5 5 4 5 4 4 4 4
2 3 3 2 2 2 2 2 2 1 3 6 5 3 3 3 3 3 2 3 3 4 6 6 8 6 7 7 7 9 7 8 10 9 7 6 6 4 4 4 5 4 4 4
2 3 4 3 2 2 1 3 1 2 2 4 7 4 3 3 3 3 4 4 4 4 6 7 6 6 7 9 10 7 6 5 5 6 4 4 4 4 4 4 4 3 3 3
3 4 4 3 3 1 3 4 1 3 1 4 7 7 3 3 3 3 4 5 6 5 6 6 6 6 6 8 11 7 5 5 5 4 4 5 4 5 4 3 4 3 3 3
5 5 4 3 3 3 2 1 3 2 3 3 8 7 6 3 5 6 5 5 5 6 7 6 7 7 7 11 7 6 5 5 4 4 3 4 3 3 3 3 3 3 3 3
5 4 3 1 2 3 2 1 1 1 2 7 7 9 9 4 5 5 5 5 7 6 7 7 7 9 12 7 6 6 5 5 5 4 4 4 4 4 4 3 3 4 3 3
5 3 3 5 2 0 0 1 4 3 4 4 7 5 8 5 5 6 6 6 8 10 8 7 8 9 6 6 6 6 4 4 4 5 5 5 5 4 4 4 3 3 3 3
3 4 4 2 1 2 4 6 7 6 8 6 6 6 7 4 7 7 6 8 8 10 9 9 9 10 7 5 5 6 5 3 3 4 4 4 3 3 4 3 3 3 2 2
5 4 4 2 3 5 8 9 7 8 9 6 7 6 5 5 4 6 6 8 8 11 7 9 12 7 5 5 5 5 5 4 4 3 3 3 3 3 3 3 3 2 2 2
3 3 5 6 6 11 11 12 10 10 7 6 6 7 5 6 5 7 7 10 10 8 10 12 9 6 6 5 4 5 5 4 4 3 3 3 3 2 2 3 2 2 2 2
5 7 12 9 10 9 9 8 8 6 5 6 5 6 6 5 7 7 9 8 8 11 12 11 7 6 6 5 5 5 5 5 4 4 3 3 3 3 3 3 2 2 3 2
6 7 12 9 7 6 6 5 5 5 5 5 6 6 6 7 8 7 8 10 12 10 11 8 7 5 5 5 6 5 5 5 4 3 3 3 3 3 3 2 2 2 2 2
5 6 8 7 8 8 6 6 6 4 6 5 5 7 8 9 8 10 11 11 12 9 7 6 5 6 5 5 6 5 4 4 4 4 4 4 4 4 4 3 2 2 2 2
6 7 5 6 6 7 6 5 5 5 6 7 7 10 10 7 9 10 8 10 7 6 6 5 5 5 6 5 5 5 5 5 5 5 5 5 4 4 3 3 3 2 2 1

GFSNW_con_lsi_123.txt.gz
Lid_Strength_Index
5 4 4 4 4 5 5 2 5 0 -0 5 4 6 5 7 5 4 5 5 6 7 7 7 8 8 6 4 5 7 5 7 10 8 5 5 6 7 7 10 10 9 9 13
5 4 4 4 4 4 1 3 3 0 1 7 6 5 5 4 5 5 5 6 5 5 7 8 8 7 5 5 5 6 5 7 10 10 7 6 7 6 6 7 7 9 11 12
4 4 4 4 4 4 2 3 5 3 3 3 5 6 6 6 4 5 5 5 5 6 7 6 7 7 5 4 5 5 5 7 8 13 10 8 8 7 7 7 9 9 9 11
4 4 4 3 3 4 2 3 4 3 6 5 5 5 5 6 6 5 4 6 6 6 8 7 7 6 6 5 5 5 5 8 7 7 7 7 8 8 7 8 7 9 8 8
4 4 3 3 3 4 2 4 3 3 4 4 5 6 6 6 6 5 6 6 6 5 7 7 8 6 6 6 5 5 5 8 7 8 7 7 8 7 7 7 7 7 7 8
4 3 3 3 3 4 2 1 1 3 5 4 5 5 5 6 5 5 4 5 5 6 5 4 4 4 4 5 5 6 6 7 8 10 7 8 9 8 7 7 6 7 9 9
4 3 3 2 3 4 1 1 2 4 6 5 5 5 5 5 5 5 4 4 5 4 2 3 3 4 4 4 5 4 6 7 7 10 9 14 8 5 6 7 7 7 6 6
4 3 2 2 2 3 1 0 2 4 6 4 5 5 5 4 4 5 5 4 3 2 3 6 7 7 6 6 5 5 5 7 9 10 10 11 8 7 7 7 8 6 6 6
4 3 2 2 2 3 2 -0 -0 2 4 5 4 4 4 5 5 5 4 3 2 2 5 6 9 10 8 9 7 5 5 5 8 9 12 13 10 7 5 5 10 5 5 6
4 3 3 2 2 3 2 0 -1 2 3 3 3 4 4 3 4 5 4 4 4 3 6 8 8 9 7 10 9 8 8 8 9 9 10 10 7 5 4 10 10 5 5 5
4 3 3 2 2 3 2 0 -2 2 3 3 2 2 3 3 3 5 4 4 4 5 7 7 6 7 7 8 7 8 8 9 9 8 11 14 5 5 8 7 4 4 4 4
4 3 2 2 2 3 3 1 -2 -1 2 3 1 1 1 1 2 3 2 4 5 4 6 5 5 7 6 8 10 6 9 7 9 9 10 5 4 5 4 4 4 4 4 4
4 3 2 2 2 3 2 1 -1 0 2 3 2 3 1 -0 0 -0 4 3 3 3 3 5 5 8 6 9 8 7 6 5 7 7 6 5 4 3 3 3 4 3 3 4
4 3 2 2 3 3 2 1 -1 1 2 4 4 0 1 -0 0 1 1 2 1 2 2 4 5 6 4 6 6 7 6 8 6 6 7 7 4 3 3 3 3 3 3 3
4 2 2 2 3 3 1 -1 -1 -1 2 4 4 2 1 0 0 1 1 1 2 3 5 5 6 4 5 5 5 6 4 6 7 8 7 5 5 3 3 3 3 3 3 3
5 3 3 2 3 3 0 3 -0 -2 -1 2 5 2 2 1 1 2 2 1 2 3 4 4 3 4 5 7 7 5 4 3 3 5 5 4 3 3 2 3 3 2 3 3
5 4 3 3 4 1 2 3 1 2 -1 3 5 5 2 1 2 2 2 2 1 3 3 4 4 5 5 6 8 5 4 3 3 3 3 4 3 4 2 2 2 2 2 2
5 4 4 3 4 2 1 -0 1 0 1 2 5 5 5 2 4 5 1 3 3 3 4 3 5 5 5 8 5 4 4 3 3 3 3 3 2 2 3 2 2 3 3 2
5 4 4 1 1 2 1 0 0 -1 2 5 5 7 8 2 4 2 3 3 6 3 5 4 4 6 12 6 4 4 4 4 4 3 3 3 3 3 3 3 3 3 3 2
4 3 2 4 2 1 -0 1 3 3 3 3 6 4 6 4 4 5 4 4 5 7 5 4 6 7 4 3 3 3 3 3 3 4 4 4 4 3 3 3 2 2 2 2
2 3 4 1 3 1 3 5 6 5 6 4 4 4 6 2 6 6 3 5 5 8 7 7 8 8 5 3 3 2 2 2 2 2 2 2 2 3 3 3 2 2 2 2
3 2 1 1 3 4 6 7 5 6 8 4 5 5 4 4 2 4 5 7 6 9 5 7 9 6 4 3 3 3 3 2 2 2 3 3 3 3 3 2 2 1 1 1
1 2 4 4 5 11 9 10 8 7 5 4 4 5 4 4 4 4 5 8 8 4 7 9 8 5 4 3 3 3 3 2 2 3 3 3 3 2 2 2 2 2 2 1
4 6 13 7 8 7 7 6 6 4 4 4 4 5 5 4 6 5 8 6 5 9 10 10 6 5 4 3 2 3 4 3 3 3 3 3 2 2 1 1 1 1 1 1
5 5 12 7 5 4 4 3 4 3 3 4 5 5 4 6 7 5 7 9 10 9 9 6 5 4 3 3 3 3 3 3 4 3 3 2 2 2 2 1 1 1 0 1
5 5 7 5 6 6 5 4 5 3 3 3 4 6 7 7 6 8 9 9 10 7 5 5 4 4 3 3 3 2 2 2 3 3 3 2 3 3 3 1 1 1 2 2
6 7 5 5 5 5 4 4 4 2 4 6 5 8 8 5 7 9 6 8 6 4 4 3 2 3 3 3 3 2 2 2 2 2 3 3 3 3 2 2 3 2 1 0